| time (UTC) | temp C | wind direction | speed KPH | gust KPH | rain 1hr cm | rain 24hr cm | rain mn cm | humidity % | barometer mb |
| 20260504192418 | 26 | 182 | 4.8 | 14.5 | 0.00 | 0.00 | 0.00 | 66 | 1013.3 |
| 20260504192338 | 26 | 163 | 4.8 | 14.5 | 0.00 | 0.00 | 0.00 | 66 | 1013.2 |
| 20260504192317 | 26 | 122 | 4.8 | 14.5 | 0.00 | 0.00 | 0.00 | 66 | 1013.2 |
| 20260504192217 | 26 | 88 | 4.8 | 14.5 | 0.00 | 0.00 | 0.00 | 66 | 1013.2 |
| 20260504192119 | 26 | 94 | 3.2 | 12.9 | 0.00 | 0.00 | 0.00 | 66 | 1013.2 |
| 20260504192102 | 26 | 265 | 4.8 | 12.9 | 0.00 | 0.00 | 0.00 | 66 | 1013.3 |
| 20260504192017 | 26 | 154 | 3.2 | 12.9 | 0.00 | 0.00 | 0.00 | 66 | 1013.2 |
| 20260504191943 | 26 | 134 | 4.8 | 12.9 | 0.00 | 0.00 | 0.00 | 66 | 1013.3 |
| 20260504191812 | 26 | 202 | 4.8 | 12.9 | 0.00 | 0.00 | 0.00 | 66 | 1013.3 |
| 20260504191712 | 26 | 173 | 4.8 | 12.9 | 0.00 | 0.00 | 0.00 | 66 | 1013.3 |
| 20260504191612 | 26 | 189 | 4.8 | 12.9 | 0.00 | 0.00 | 0.00 | 66 | 1013.3 |
| 20260504191511 | 26 | 123 | 4.8 | 14.5 | 0.00 | 0.00 | 0.00 | 65 | 1013.3 |
| 20260504191409 | 26 | 113 | 6.4 | 14.5 | 0.00 | 0.00 | 0.00 | 65 | 1013.3 |
| 20260504191338 | 26 | 147 | 6.4 | 14.5 | 0.00 | 0.00 | 0.00 | 65 | 1013.3 |
| 20260504191306 | 26 | 287 | 6.4 | 14.5 | 0.00 | 0.00 | 0.00 | 65 | 1013.3 |
| 20260504191207 | 26 | 175 | 6.4 | 14.5 | 0.00 | 0.00 | 0.00 | 65 | 1013.3 |
| 20260504191104 | 26 | 171 | 6.4 | 14.5 | 0.00 | 0.00 | 0.00 | 66 | 1013.3 |
| 20260504191004 | 26 | 205 | 6.4 | 14.5 | 0.00 | 0.00 | 0.00 | 65 | 1013.3 |
| 20260504190903 | 26 | 151 | 4.8 | 14.5 | 0.00 | 0.00 | 0.00 | 66 | 1013.4 |
| 20260504190835 | 26 | 170 | 4.8 | 14.5 | 0.00 | 0.00 | 0.00 | 66 | 1013.4 |
| 20260504190803 | 26 | 206 | 4.8 | 14.5 | 0.00 | 0.00 | 0.00 | 65 | 1013.4 |
| 20260504190700 | 26 | 102 | 4.8 | 14.5 | 0.00 | 0.00 | 0.00 | 65 | 1013.4 |
| 20260504190559 | 27 | 104 | 4.8 | 14.5 | 0.00 | 0.00 | 0.00 | 64 | 1013.4 |
| 20260504190553 | 26 | 97 | 4.8 | 14.5 | 0.00 | 0.00 | 0.00 | 66 | 1013.5 |
| 20260504190500 | 27 | 92 | 4.8 | 14.5 | 0.00 | 0.00 | 0.00 | 64 | 1013.4 |
| 20260504190437 | 26 | 195 | 4.8 | 14.5 | 0.00 | 0.00 | 0.00 | 66 | 1013.5 |
| 20260504190259 | 26 | 90 | 4.8 | 12.9 | 0.00 | 0.00 | 0.00 | 65 | 1013.4 |
| 20260504190201 | 26 | 104 | 4.8 | 12.9 | 0.00 | 0.00 | 0.00 | 67 | 1013.4 |
| 20260504190100 | 26 | 40 | 4.8 | 12.9 | 0.00 | 0.00 | 0.00 | 68 | 1013.4 |
| 20260504190000 | 26 | 272 | 4.8 | 12.9 | 0.00 | 0.00 | 0.00 | 65 | 1013.5 |
| 20260504185857 | 26 | 63 | 4.8 | 12.9 | 0.00 | 0.00 | 0.00 | 65 | 1013.5 |
| 20260504185828 | 26 | 96 | 4.8 | 12.9 | 0.00 | 0.00 | 0.00 | 65 | 1013.5 |
| 20260504185757 | 26 | 167 | 4.8 | 12.9 | 0.00 | 0.00 | 0.00 | 66 | 1013.5 |
| 20260504185657 | 26 | 134 | 4.8 | 12.9 | 0.00 | 0.00 | 0.00 | 66 | 1013.5 |
| 20260504185557 | 26 | 103 | 4.8 | 11.3 | 0.00 | 0.00 | 0.00 | 66 | 1013.5 |
| 20260504185546 | 26 | 167 | 4.8 | 9.7 | 0.00 | 0.00 | 0.00 | 65 | 1013.5 |
| 20260504185454 | 26 | 118 | 4.8 | 9.7 | 0.00 | 0.00 | 0.00 | 66 | 1013.5 |
| 20260504185435 | 26 | 117 | 4.8 | 9.7 | 0.00 | 0.00 | 0.00 | 65 | 1013.5 |
| 20260504185254 | 26 | 80 | 4.8 | 9.7 | 0.00 | 0.00 | 0.00 | 65 | 1013.5 |
| 20260504185148 | 26 | 217 | 4.8 | 14.5 | 0.00 | 0.00 | 0.00 | 65 | 1013.5 |
| 20260504185048 | 26 | 128 | 4.8 | 14.5 | 0.00 | 0.00 | 0.00 | 65 | 1013.6 |
| 20260504184945 | 26 | 109 | 4.8 | 16.1 | 0.00 | 0.00 | 0.00 | 65 | 1013.6 |
| 20260504184845 | 26 | 71 | 4.8 | 16.1 | 0.00 | 0.00 | 0.00 | 65 | 1013.6 |
| 20260504184824 | 26 | 101 | 4.8 | 16.1 | 0.00 | 0.00 | 0.00 | 65 | 1013.6 |
| 20260504184744 | 26 | 131 | 4.8 | 20.9 | 0.00 | 0.00 | 0.00 | 65 | 1013.6 |
| 20260504184636 | 26 | 156 | 6.4 | 20.9 | 0.00 | 0.00 | 0.00 | 65 | 1013.6 |
| 20260504184533 | 26 | 278 | 6.4 | 20.9 | 0.00 | 0.00 | 0.00 | 65 | 1013.6 |
| 20260504184427 | 26 | 182 | 4.8 | 20.9 | 0.00 | 0.00 | 0.00 | 65 | 1013.6 |
| 20260504184327 | 26 | 76 | 4.8 | 20.9 | 0.00 | 0.00 | 0.00 | 65 | 1013.6 |
| 20260504184305 | 26 | 153 | 4.8 | 20.9 | 0.00 | 0.00 | 0.00 | 65 | 1013.6 |
| 20260504184227 | 26 | 185 | 4.8 | 20.9 | 0.00 | 0.00 | 0.00 | 65 | 1013.6 |
| 20260504184127 | 26 | 190 | 4.8 | 20.9 | 0.00 | 0.00 | 0.00 | 64 | 1013.6 |
| 20260504184027 | 26 | 89 | 4.8 | 20.9 | 0.00 | 0.00 | 0.00 | 64 | 1013.6 |
| 20260504183927 | 26 | 164 | 4.8 | 20.9 | 0.00 | 0.00 | 0.00 | 64 | 1013.6 |
| 20260504183805 | 26 | 123 | 4.8 | 20.9 | 0.00 | 0.00 | 0.00 | 64 | 1013.6 |
| 20260504183727 | 26 | 82 | 4.8 | 20.9 | 0.00 | 0.00 | 0.00 | 66 | 1013.6 |
| 20260504183627 | 26 | 87 | 4.8 | 12.9 | 0.00 | 0.00 | 0.00 | 66 | 1013.6 |
| 20260504183528 | 26 | 216 | 4.8 | 12.9 | 0.00 | 0.00 | 0.00 | 65 | 1013.7 |
| 20260504183428 | 26 | 22 | 4.8 | 12.9 | 0.00 | 0.00 | 0.00 | 65 | 1013.7 |
| 20260504183327 | 26 | 116 | 4.8 | 12.9 | 0.00 | 0.00 | 0.00 | 65 | 1013.7 |
| 20260504183305 | 26 | 181 | 4.8 | 12.9 | 0.00 | 0.00 | 0.00 | 65 | 1013.7 |
| 20260504183225 | 26 | 178 | 4.8 | 12.9 | 0.00 | 0.00 | 0.00 | 65 | 1013.7 |
| 20260504183122 | 26 | 163 | 4.8 | 12.9 | 0.00 | 0.00 | 0.00 | 66 | 1013.7 |
| 20260504183022 | 26 | 63 | 4.8 | 12.9 | 0.00 | 0.00 | 0.00 | 65 | 1013.7 |
| 20260504182922 | 26 | 97 | 4.8 | 12.9 | 0.00 | 0.00 | 0.00 | 64 | 1013.7 |
| 20260504182822 | 26 | 146 | 4.8 | 12.9 | 0.00 | 0.00 | 0.00 | 64 | 1013.7 |
| 20260504182805 | 26 | 92 | 4.8 | 12.9 | 0.00 | 0.00 | 0.00 | 64 | 1013.7 |
| 20260504182721 | 26 | 211 | 4.8 | 12.9 | 0.00 | 0.00 | 0.00 | 64 | 1013.8 |
| 20260504182622 | 26 | 303 | 4.8 | 12.9 | 0.00 | 0.00 | 0.00 | 64 | 1013.8 |
| 20260504182522 | 26 | 63 | 4.8 | 12.9 | 0.00 | 0.00 | 0.00 | 64 | 1013.8 |
| 20260504182421 | 26 | 115 | 4.8 | 12.9 | 0.00 | 0.00 | 0.00 | 64 | 1013.8 |
| 20260504182319 | 26 | 159 | 4.8 | 12.9 | 0.00 | 0.00 | 0.00 | 65 | 1013.8 |
| 20260504182304 | 26 | 135 | 4.8 | 12.9 | 0.00 | 0.00 | 0.00 | 66 | 1013.8 |
| 20260504182218 | 26 | 343 | 4.8 | 12.9 | 0.00 | 0.00 | 0.00 | 66 | 1013.8 |
| 20260504182118 | 26 | 158 | 4.8 | 12.9 | 0.00 | 0.00 | 0.00 | 65 | 1013.8 |
| 20260504182016 | 26 | 178 | 4.8 | 12.9 | 0.00 | 0.00 | 0.00 | 65 | 1013.8 |
| 20260504181916 | 26 | 227 | 4.8 | 12.9 | 0.00 | 0.00 | 0.00 | 65 | 1013.8 |
| 20260504181809 | 26 | 64 | 4.8 | 11.3 | 0.00 | 0.00 | 0.00 | 63 | 1013.8 |
| 20260504181756 | 26 | 111 | 4.8 | 11.3 | 0.00 | 0.00 | 0.00 | 63 | 1013.8 |
| 20260504181707 | 26 | 80 | 4.8 | 11.3 | 0.00 | 0.00 | 0.00 | 63 | 1013.8 |
| 20260504181607 | 26 | 33 | 3.2 | 11.3 | 0.00 | 0.00 | 0.00 | 64 | 1013.8 |
| 20260504181507 | 26 | 157 | 3.2 | 11.3 | 0.00 | 0.00 | 0.00 | 64 | 1013.8 |
| 20260504181407 | 27 | 252 | 3.2 | 16.1 | 0.00 | 0.00 | 0.00 | 64 | 1014.0 |
| 20260504181307 | 27 | 171 | 4.8 | 16.1 | 0.00 | 0.00 | 0.00 | 64 | 1014.0 |
| 20260504181256 | 27 | 176 | 3.2 | 16.1 | 0.00 | 0.00 | 0.00 | 64 | 1014.0 |
| 20260504181205 | 27 | 209 | 4.8 | 16.1 | 0.00 | 0.00 | 0.00 | 63 | 1014.1 |
| 20260504181105 | 27 | 129 | 4.8 | 16.1 | 0.00 | 0.00 | 0.00 | 65 | 1014.0 |
| 20260504181005 | 27 | 54 | 4.8 | 16.1 | 0.00 | 0.00 | 0.00 | 64 | 1014.1 |
| 20260504180905 | 27 | 210 | 4.8 | 16.1 | 0.00 | 0.00 | 0.00 | 64 | 1014.1 |
| 20260504180801 | 27 | 184 | 3.2 | 16.1 | 0.00 | 0.00 | 0.00 | 65 | 1014.1 |
| 20260504180754 | 27 | 186 | 3.2 | 16.1 | 0.00 | 0.00 | 0.00 | 65 | 1014.1 |
| 20260504180701 | 27 | 93 | 3.2 | 16.1 | 0.00 | 0.00 | 0.00 | 65 | 1014.1 |
| 20260504180558 | 27 | 78 | 3.2 | 16.1 | 0.00 | 0.00 | 0.00 | 64 | 1014.1 |
| 20260504180458 | 27 | 33 | 4.8 | 16.1 | 0.00 | 0.00 | 0.00 | 63 | 1014.1 |
| 20260504180355 | 27 | 106 | 3.2 | 12.9 | 0.00 | 0.00 | 0.00 | 63 | 1014.1 |
| 20260504180256 | 27 | 29 | 3.2 | 12.9 | 0.00 | 0.00 | 0.00 | 63 | 1014.1 |
| 20260504180250 | 27 | 162 | 3.2 | 12.9 | 0.00 | 0.00 | 0.00 | 63 | 1014.1 |
| 20260504180155 | 27 | 130 | 3.2 | 12.9 | 0.00 | 0.00 | 0.00 | 63 | 1014.0 |
| 20260504180051 | 27 | 76 | 3.2 | 9.7 | 0.00 | 0.00 | 0.00 | 66 | 1014.0 |
| 20260504175949 | 27 | 310 | 3.2 | 9.7 | 0.00 | 0.00 | 0.00 | 64 | 1014.1 |
| 20260504175843 | 27 | 150 | 3.2 | 11.3 | 0.00 | 0.00 | 0.00 | 62 | 1014.1 |
| 20260504175743 | 27 | 167 | 3.2 | 11.3 | 0.00 | 0.00 | 0.00 | 62 | 1014.1 |
| 20260504175643 | 27 | 97 | 3.2 | 11.3 | 0.00 | 0.00 | 0.00 | 63 | 1014.1 |
| 20260504175543 | 27 | 196 | 3.2 | 11.3 | 0.00 | 0.00 | 0.00 | 63 | 1014.2 |
| 20260504175440 | 27 | 135 | 3.2 | 11.3 | 0.00 | 0.00 | 0.00 | 62 | 1014.2 |
| 20260504175340 | 27 | 143 | 3.2 | 11.3 | 0.00 | 0.00 | 0.00 | 62 | 1014.2 |
| 20260504175241 | 27 | 178 | 3.2 | 11.3 | 0.00 | 0.00 | 0.00 | 62 | 1014.2 |
| 20260504175237 | 27 | 194 | 3.2 | 12.9 | 0.00 | 0.00 | 0.00 | 62 | 1014.2 |
| 20260504175137 | 26 | 165 | 3.2 | 12.9 | 0.00 | 0.00 | 0.00 | 60 | 1014.1 |
| 20260504175037 | 26 | 265 | 4.8 | 12.9 | 0.00 | 0.00 | 0.00 | 60 | 1014.1 |
| 20260504174938 | 26 | 175 | 4.8 | 12.9 | 0.00 | 0.00 | 0.00 | 60 | 1014.1 |
| 20260504174837 | 26 | 192 | 4.8 | 12.9 | 0.00 | 0.00 | 0.00 | 60 | 1014.1 |
| 20260504174737 | 26 | 233 | 4.8 | 12.9 | 0.00 | 0.00 | 0.00 | 64 | 1014.1 |
| 20260504174634 | 26 | 186 | 4.8 | 12.9 | 0.00 | 0.00 | 0.00 | 64 | 1014.1 |
| 20260504174531 | 26 | 286 | 4.8 | 12.9 | 0.00 | 0.00 | 0.00 | 64 | 1014.1 |
| 20260504174431 | 26 | 185 | 6.4 | 12.9 | 0.00 | 0.00 | 0.00 | 64 | 1014.1 |
| 20260504174329 | 26 | 167 | 4.8 | 12.9 | 0.00 | 0.00 | 0.00 | 64 | 1014.2 |
| 20260504174239 | 26 | 191 | 6.4 | 14.5 | 0.00 | 0.00 | 0.00 | 64 | 1014.2 |
| 20260504174229 | 26 | 190 | 6.4 | 14.5 | 0.00 | 0.00 | 0.00 | 64 | 1014.2 |
| 20260504174128 | 26 | 152 | 6.4 | 14.5 | 0.00 | 0.00 | 0.00 | 64 | 1014.2 |
| 20260504174028 | 26 | 46 | 4.8 | 14.5 | 0.00 | 0.00 | 0.00 | 65 | 1014.3 |
| 20260504173928 | 26 | 143 | 4.8 | 14.5 | 0.00 | 0.00 | 0.00 | 64 | 1014.4 |
| 20260504173828 | 26 | 206 | 4.8 | 14.5 | 0.00 | 0.00 | 0.00 | 64 | 1014.4 |
| 20260504173740 | 26 | 186 | 4.8 | 14.5 | 0.00 | 0.00 | 0.00 | 65 | 1014.4 |
| 20260504173729 | 26 | 159 | 4.8 | 14.5 | 0.00 | 0.00 | 0.00 | 65 | 1014.4 |
| 20260504173629 | 26 | 163 | 4.8 | 14.5 | 0.00 | 0.00 | 0.00 | 65 | 1014.4 |
| 20260504173528 | 26 | 176 | 4.8 | 14.5 | 0.00 | 0.00 | 0.00 | 65 | 1014.4 |
| 20260504173428 | 26 | 122 | 4.8 | 14.5 | 0.00 | 0.00 | 0.00 | 65 | 1014.4 |
| 20260504173328 | 26 | 187 | 4.8 | 14.5 | 0.00 | 0.00 | 0.00 | 64 | 1014.4 |
| 20260504173239 | 26 | 161 | 4.8 | 14.5 | 0.00 | 0.00 | 0.00 | 63 | 1014.5 |
| 20260504173229 | 26 | 94 | 4.8 | 14.5 | 0.00 | 0.00 | 0.00 | 63 | 1014.5 |
| 20260504173128 | 26 | 230 | 4.8 | 12.9 | 0.00 | 0.00 | 0.00 | 63 | 1014.5 |
| 20260504173029 | 26 | 129 | 4.8 | 12.9 | 0.00 | 0.00 | 0.00 | 62 | 1014.6 |
| 20260504172928 | 26 | 137 | 4.8 | 12.9 | 0.00 | 0.00 | 0.00 | 62 | 1014.6 |
| 20260504172829 | 26 | 151 | 4.8 | 12.9 | 0.00 | 0.00 | 0.00 | 62 | 1014.7 |
| 20260504172740 | 26 | 155 | 4.8 | 12.9 | 0.00 | 0.00 | 0.00 | 62 | 1014.7 |
| 20260504172729 | 26 | 40 | 4.8 | 12.9 | 0.00 | 0.00 | 0.00 | 62 | 1014.7 |
| 20260504172629 | 26 | 194 | 4.8 | 12.9 | 0.00 | 0.00 | 0.00 | 63 | 1014.6 |
| 20260504172529 | 26 | 195 | 4.8 | 12.9 | 0.00 | 0.00 | 0.00 | 63 | 1014.6 |
| 20260504172428 | 26 | 149 | 4.8 | 12.9 | 0.00 | 0.00 | 0.00 | 63 | 1014.6 |
| 20260504172325 | 26 | 262 | 4.8 | 12.9 | 0.00 | 0.00 | 0.00 | 63 | 1014.6 |
| 20260504172239 | 26 | 316 | 4.8 | 12.9 | 0.00 | 0.00 | 0.00 | 64 | 1014.6 |
| 20260504172225 | 26 | 207 | 4.8 | 12.9 | 0.00 | 0.00 | 0.00 | 64 | 1014.6 |
| 20260504172122 | 26 | 230 | 4.8 | 12.9 | 0.00 | 0.00 | 0.00 | 63 | 1014.7 |
| 20260504172023 | 26 | 194 | 4.8 | 12.9 | 0.00 | 0.00 | 0.00 | 63 | 1014.7 |
| 20260504172002 | 26 | 156 | 3.2 | 12.9 | 0.00 | 0.00 | 0.00 | 63 | 1014.7 |
| 20260504171920 | 26 | 155 | 3.2 | 12.9 | 0.00 | 0.00 | 0.00 | 62 | 1014.8 |
| 20260504171841 | 26 | 82 | 3.2 | 12.9 | 0.00 | 0.00 | 0.00 | 62 | 1014.8 |
| 20260504171716 | 26 | 178 | 3.2 | 12.9 | 0.00 | 0.00 | 0.00 | 63 | 1014.7 |
| 20260504171617 | 26 | 105 | 3.2 | 11.3 | 0.00 | 0.00 | 0.00 | 64 | 1014.8 |
| 20260504171513 | 26 | 111 | 3.2 | 11.3 | 0.00 | 0.00 | 0.00 | 64 | 1014.8 |
| 20260504171414 | 26 | 283 | 3.2 | 11.3 | 0.00 | 0.00 | 0.00 | 63 | 1014.8 |
| 20260504171313 | 26 | 261 | 3.2 | 11.3 | 0.00 | 0.00 | 0.00 | 62 | 1014.8 |
| 20260504171236 | 26 | 172 | 3.2 | 11.3 | 0.00 | 0.00 | 0.00 | 61 | 1014.8 |
| 20260504171213 | 26 | 149 | 3.2 | 11.3 | 0.00 | 0.00 | 0.00 | 61 | 1014.8 |
| 20260504171114 | 26 | 41 | 3.2 | 11.3 | 0.00 | 0.00 | 0.00 | 63 | 1014.8 |
| 20260504171013 | 26 | 228 | 3.2 | 11.3 | 0.00 | 0.00 | 0.00 | 63 | 1014.8 |
| 20260504170913 | 26 | 232 | 3.2 | 11.3 | 0.00 | 0.00 | 0.00 | 63 | 1014.8 |
| 20260504170813 | 26 | 183 | 3.2 | 11.3 | 0.00 | 0.00 | 0.00 | 62 | 1014.8 |
| 20260504170733 | 26 | 190 | 3.2 | 11.3 | 0.00 | 0.00 | 0.00 | 64 | 1014.8 |
| 20260504170714 | 26 | 318 | 3.2 | 11.3 | 0.00 | 0.00 | 0.00 | 64 | 1014.8 |
| 20260504170614 | 26 | 162 | 3.2 | 9.7 | 0.00 | 0.00 | 0.00 | 64 | 1014.8 |
| 20260504170514 | 26 | 195 | 3.2 | 9.7 | 0.00 | 0.00 | 0.00 | 64 | 1014.8 |
| 20260504170452 | 26 | 168 | 3.2 | 9.7 | 0.00 | 0.00 | 0.00 | 64 | 1014.8 |
| 20260504170414 | 26 | 207 | 3.2 | 9.7 | 0.00 | 0.00 | 0.00 | 64 | 1014.8 |
| 20260504170339 | 26 | 101 | 3.2 | 9.7 | 0.00 | 0.00 | 0.00 | 64 | 1014.8 |
| 20260504170214 | 26 | 110 | 3.2 | 9.7 | 0.00 | 0.00 | 0.00 | 64 | 1014.8 |
| 20260504170114 | 26 | 186 | 3.2 | 12.9 | 0.00 | 0.00 | 0.00 | 65 | 1014.9 |
| 20260504160430 | 25 | 262 | 4.8 | 17.7 | 0.00 | 0.00 | 0.00 | 68 | 1015.4 |
| 20260504160327 | 25 | 195 | 4.8 | 17.7 | 0.00 | 0.00 | 0.00 | 68 | 1015.4 |
| 20260504160227 | 25 | 108 | 4.8 | 17.7 | 0.00 | 0.00 | 0.00 | 68 | 1015.4 |
| 20260504160216 | 25 | 194 | 4.8 | 17.7 | 0.00 | 0.00 | 0.00 | 68 | 1015.4 |
| 20260504160120 | 25 | 241 | 4.8 | 17.7 | 0.00 | 0.00 | 0.00 | 68 | 1015.4 |
| 20260504151127 | 25 | 196 | 4.8 | 12.9 | 0.00 | 0.00 | 0.00 | 66 | 1015.3 |
| 20260504151027 | 25 | 92 | 3.2 | 12.9 | 0.00 | 0.00 | 0.00 | 68 | 1015.4 |
| 20260504150924 | 25 | 116 | 3.2 | 12.9 | 0.00 | 0.00 | 0.00 | 68 | 1015.4 |
| 20260504150824 | 25 | 108 | 3.2 | 11.3 | 0.00 | 0.00 | 0.00 | 68 | 1015.4 |
| 20260504150721 | 25 | 97 | 3.2 | 11.3 | 0.00 | 0.00 | 0.00 | 68 | 1015.4 |
| 20260504150658 | 25 | 98 | 3.2 | 11.3 | 0.00 | 0.00 | 0.00 | 66 | 1015.3 |
| 20260504150621 | 25 | 95 | 3.2 | 11.3 | 0.00 | 0.00 | 0.00 | 66 | 1015.3 |
| 20260504150521 | 25 | 227 | 3.2 | 11.3 | 0.00 | 0.00 | 0.00 | 68 | 1015.3 |
| 20260504150421 | 25 | 202 | 4.8 | 14.5 | 0.00 | 0.00 | 0.00 | 68 | 1015.4 |
| 20260504150315 | 25 | 77 | 4.8 | 14.5 | 0.00 | 0.00 | 0.00 | 67 | 1015.4 |
| 20260504150217 | 25 | 111 | 4.8 | 14.5 | 0.00 | 0.00 | 0.00 | 67 | 1015.5 |
| 20260504150159 | 25 | 196 | 4.8 | 14.5 | 0.00 | 0.00 | 0.00 | 67 | 1015.5 |
| 20260504150116 | 25 | 214 | 4.8 | 14.5 | 0.00 | 0.00 | 0.00 | 67 | 1015.5 |
| 20260504141319 | 23 | 204 | 3.2 | 9.7 | 0.00 | 0.00 | 0.00 | 74 | 1015.4 |
| 20260504141216 | 23 | 108 | 3.2 | 8.0 | 0.00 | 0.00 | 0.00 | 74 | 1015.4 |
| 20260504141138 | 22 | 93 | 3.2 | 8.0 | 0.00 | 0.00 | 0.00 | 74 | 1015.4 |
| 20260504141116 | 22 | 0 | 3.2 | 8.0 | 0.00 | 0.00 | 0.00 | 74 | 1015.4 |
| 20260504141013 | 22 | 82 | 3.2 | 8.0 | 0.00 | 0.00 | 0.00 | 74 | 1015.4 |
| 20260504140913 | 22 | 76 | 3.2 | 6.4 | 0.00 | 0.00 | 0.00 | 74 | 1015.4 |
| 20260504140810 | 22 | 150 | 3.2 | 6.4 | 0.00 | 0.00 | 0.00 | 75 | 1015.4 |
| 20260504140710 | 22 | 217 | 3.2 | 6.4 | 0.00 | 0.00 | 0.00 | 74 | 1015.3 |
| 20260504140639 | 22 | 88 | 1.6 | 6.4 | 0.00 | 0.00 | 0.00 | 74 | 1015.3 |
| 20260504140609 | 22 | 72 | 1.6 | 6.4 | 0.00 | 0.00 | 0.00 | 74 | 1015.3 |
| 20260504140507 | 22 | 68 | 1.6 | 6.4 | 0.00 | 0.00 | 0.00 | 75 | 1015.3 |
| 20260504140407 | 22 | 84 | 1.6 | 6.4 | 0.00 | 0.00 | 0.00 | 75 | 1015.3 |
| 20260504140301 | 22 | 84 | 1.6 | 6.4 | 0.00 | 0.00 | 0.00 | 75 | 1015.3 |
| 20260504140159 | 22 | 172 | 1.6 | 4.8 | 0.00 | 0.00 | 0.00 | 75 | 1015.3 |
| 20260504140136 | 22 | 258 | 1.6 | 4.8 | 0.00 | 0.00 | 0.00 | 75 | 1015.3 |
| 20260504130710 | 16 | 79 | 3.2 | 4.8 | 0.00 | 0.00 | 0.00 | 91 | 1015.3 |
| 20260504130610 | 16 | 109 | 3.2 | 4.8 | 0.00 | 0.00 | 0.00 | 92 | 1015.3 |
| 20260504130456 | 16 | 104 | 3.2 | 4.8 | 0.00 | 0.00 | 0.00 | 94 | 1015.3 |
| 20260504130356 | 15 | 80 | 3.2 | 4.8 | 0.00 | 0.00 | 0.00 | 95 | 1015.3 |
| 20260504130326 | 15 | 78 | 1.6 | 4.8 | 0.00 | 0.00 | 0.00 | 97 | 1015.3 |
| 20260504130256 | 15 | 86 | 3.2 | 4.8 | 0.00 | 0.00 | 0.00 | 95 | 1015.3 |
| 20260504130200 | 15 | 91 | 1.6 | 4.8 | 0.00 | 0.00 | 0.00 | 97 | 1015.3 |
| 20260504120227 | 12 | 51 | 1.6 | 3.2 | 0.00 | 0.00 | 0.00 | 99 | 1015.1 |
| 20260504120137 | 12 | 53 | 1.6 | 3.2 | 0.00 | 0.00 | 0.00 | 99 | 1015.2 |
| 20260504110710 | 12 | 10 | 1.6 | 3.2 | 0.00 | 0.00 | 0.00 | 99 | 1015.1 |
| 20260504110610 | 12 | 29 | 1.6 | 3.2 | 0.00 | 0.00 | 0.00 | 99 | 1015.1 |
| 20260504110509 | 12 | 12 | 3.2 | 3.2 | 0.00 | 0.00 | 0.00 | 99 | 1015.1 |
| 20260504110408 | 12 | 29 | 1.6 | 3.2 | 0.00 | 0.00 | 0.00 | 99 | 1015.0 |
| 20260504110404 | 12 | 37 | 1.6 | 3.2 | 0.00 | 0.00 | 0.00 | 99 | 1015.0 |
| 20260504110303 | 12 | 58 | 1.6 | 3.2 | 0.00 | 0.00 | 0.00 | 99 | 1015.0 |
| 20260504110204 | 12 | 41 | 1.6 | 3.2 | 0.00 | 0.00 | 0.00 | 99 | 1015.1 |
| 20260504110104 | 12 | 13 | 3.2 | 3.2 | 0.00 | 0.00 | 0.00 | 99 | 1015.1 |
| 20260504100522 | 12 | 12 | 1.6 | 3.2 | 0.00 | 0.00 | 0.00 | 99 | 1015.3 |
| 20260504100423 | 12 | 39 | 1.6 | 3.2 | 0.00 | 0.00 | 0.00 | 99 | 1015.2 |
| 20260504100357 | 12 | 46 | 1.6 | 3.2 | 0.00 | 0.00 | 0.00 | 99 | 1015.2 |
| 20260504100323 | 12 | 54 | 1.6 | 3.2 | 0.00 | 0.00 | 0.00 | 99 | 1015.2 |
| 20260504100222 | 12 | 0 | 1.6 | 3.2 | 0.00 | 0.00 | 0.00 | 99 | 1015.2 |
| 20260504100120 | 12 | 50 | 1.6 | 3.2 | 0.00 | 0.00 | 0.00 | 99 | 1015.2 |
| 20260504090119 | 12 | 3 | 3.2 | 3.2 | 0.00 | 0.00 | 0.00 | 98 | 1015.5 |
| 20260504081945 | 12 | 35 | 3.2 | 4.8 | 0.00 | 0.00 | 0.00 | 98 | 1016.0 |
| 20260504081936 | 12 | 12 | 3.2 | 4.8 | 0.00 | 0.00 | 0.00 | 98 | 1016.0 |
| 20260504081745 | 12 | 50 | 3.2 | 4.8 | 0.00 | 0.00 | 0.00 | 98 | 1016.0 |
| 20260504081645 | 12 | 17 | 3.2 | 4.8 | 0.00 | 0.00 | 0.00 | 98 | 1016.0 |
| 20260504081556 | 12 | 43 | 1.6 | 4.8 | 0.00 | 0.00 | 0.00 | 98 | 1016.0 |
| 20260504081539 | 12 | 63 | 3.2 | 4.8 | 0.00 | 0.00 | 0.00 | 98 | 1016.0 |
| 20260504081439 | 12 | 39 | 3.2 | 4.8 | 0.00 | 0.00 | 0.00 | 98 | 1015.9 |
| 20260504081434 | 12 | 48 | 1.6 | 4.8 | 0.00 | 0.00 | 0.00 | 98 | 1016.0 |
| 20260504081233 | 12 | 13 | 1.6 | 4.8 | 0.00 | 0.00 | 0.00 | 98 | 1016.0 |
| 20260504081133 | 12 | 38 | 1.6 | 4.8 | 0.00 | 0.00 | 0.00 | 98 | 1016.0 |
| 20260504081056 | 12 | 37 | 1.6 | 3.2 | 0.00 | 0.00 | 0.00 | 98 | 1016.1 |
| 20260504081034 | 12 | 32 | 1.6 | 4.8 | 0.00 | 0.00 | 0.00 | 98 | 1016.1 |
| 20260504080940 | 12 | 30 | 1.6 | 4.8 | 0.00 | 0.00 | 0.00 | 98 | 1016.1 |
| 20260504080935 | 12 | 42 | 1.6 | 3.2 | 0.00 | 0.00 | 0.00 | 98 | 1016.1 |
| 20260504080733 | 12 | 42 | 1.6 | 4.8 | 0.00 | 0.00 | 0.00 | 98 | 1016.1 |
| 20260504080633 | 12 | 42 | 3.2 | 4.8 | 0.00 | 0.00 | 0.00 | 97 | 1016.1 |
| 20260504080530 | 12 | 34 | 3.2 | 4.8 | 0.00 | 0.00 | 0.00 | 97 | 1016.1 |
| 20260504080518 | 12 | 31 | 3.2 | 4.8 | 0.00 | 0.00 | 0.00 | 97 | 1016.2 |
| 20260504080430 | 12 | 13 | 3.2 | 4.8 | 0.00 | 0.00 | 0.00 | 97 | 1016.1 |
| 20260504080330 | 12 | 46 | 3.2 | 4.8 | 0.00 | 0.00 | 0.00 | 97 | 1016.1 |
| 20260504070334 | 12 | 45 | 1.6 | 4.8 | 0.00 | 0.00 | 0.00 | 96 | 1017.0 |
| 20260504070235 | 12 | 42 | 1.6 | 4.8 | 0.00 | 0.00 | 0.00 | 96 | 1017.0 |
| 20260504070134 | 12 | 42 | 1.6 | 4.8 | 0.00 | 0.00 | 0.00 | 96 | 1017.1 |
| 20260504060241 | 12 | 75 | 1.6 | 3.2 | 0.00 | 0.00 | 0.00 | 95 | 1017.4 |
| 20260504060141 | 12 | 44 | 1.6 | 3.2 | 0.00 | 0.00 | 0.00 | 95 | 1017.4 |
| 20260504050717 | 12 | 58 | 1.6 | 3.2 | 0.00 | 0.00 | 0.00 | 93 | 1017.8 |
| 20260504050617 | 12 | 52 | 1.6 | 3.2 | 0.00 | 0.00 | 0.00 | 93 | 1017.8 |
| 20260504050517 | 12 | 44 | 1.6 | 3.2 | 0.00 | 0.00 | 0.00 | 93 | 1017.9 |
| 20260504050502 | 12 | 40 | 1.6 | 3.2 | 0.00 | 0.00 | 0.00 | 93 | 1017.9 |
| 20260504050417 | 12 | 46 | 1.6 | 3.2 | 0.00 | 0.00 | 0.00 | 93 | 1017.9 |
| 20260504050317 | 12 | 52 | 1.6 | 3.2 | 0.00 | 0.00 | 0.00 | 93 | 1017.9 |
| 20260504050217 | 12 | 46 | 1.6 | 3.2 | 0.00 | 0.00 | 0.00 | 93 | 1017.9 |
| 20260504050117 | 12 | 299 | 1.6 | 3.2 | 0.00 | 0.00 | 0.00 | 93 | 1017.9 |
| 20260504050016 | 12 | 0 | 1.6 | 3.2 | 0.00 | 0.00 | 0.00 | 93 | 1017.9 |
| 20260504050002 | 12 | 40 | 1.6 | 3.2 | 0.00 | 0.00 | 0.00 | 93 | 1017.9 |
| 20260504045915 | 12 | 48 | 1.6 | 3.2 | 0.00 | 0.00 | 0.00 | 93 | 1018.0 |
| 20260504045815 | 12 | 36 | 1.6 | 3.2 | 0.00 | 0.00 | 0.00 | 93 | 1018.0 |
| 20260504045724 | 12 | 48 | 1.6 | 3.2 | 0.00 | 0.00 | 0.00 | 92 | 1018.0 |
| 20260504045715 | 12 | 42 | 1.6 | 3.2 | 0.00 | 0.00 | 0.00 | 92 | 1018.0 |
| 20260504045613 | 12 | 1 | 1.6 | 3.2 | 0.00 | 0.00 | 0.00 | 92 | 1018.0 |
| 20260504045607 | 12 | 22 | 1.6 | 3.2 | 0.00 | 0.00 | 0.00 | 92 | 1018.0 |
| 20260504045412 | 12 | 44 | 1.6 | 3.2 | 0.00 | 0.00 | 0.00 | 92 | 1018.0 |
| 20260504045312 | 12 | 37 | 1.6 | 3.2 | 0.00 | 0.00 | 0.00 | 92 | 1018.0 |
| 20260504045212 | 12 | 39 | 1.6 | 3.2 | 0.00 | 0.00 | 0.00 | 92 | 1018.0 |
| 20260504045112 | 12 | 42 | 1.6 | 3.2 | 0.00 | 0.00 | 0.00 | 92 | 1018.0 |
| 20260504045004 | 12 | 30 | 1.6 | 3.2 | 0.00 | 0.00 | 0.00 | 92 | 1017.9 |
| 20260504044959 | 12 | 306 | 1.6 | 3.2 | 0.00 | 0.00 | 0.00 | 92 | 1017.9 |
| 20260504044900 | 13 | 42 | 1.6 | 3.2 | 0.00 | 0.00 | 0.00 | 92 | 1017.9 |
| 20260504044800 | 13 | 0 | 1.6 | 3.2 | 0.00 | 0.00 | 0.00 | 92 | 1017.9 |
| 20260504044657 | 13 | 45 | 1.6 | 4.8 | 0.00 | 0.00 | 0.00 | 92 | 1018.0 |
| 20260504044558 | 13 | 49 | 1.6 | 4.8 | 0.00 | 0.00 | 0.00 | 92 | 1018.0 |
| 20260504044456 | 13 | 27 | 1.6 | 4.8 | 0.00 | 0.00 | 0.00 | 91 | 1018.0 |
| 20260504044451 | 13 | 46 | 1.6 | 4.8 | 0.00 | 0.00 | 0.00 | 91 | 1018.0 |
| 20260504044349 | 13 | 48 | 1.6 | 4.8 | 0.00 | 0.00 | 0.00 | 92 | 1018.0 |
| 20260504044247 | 13 | 30 | 1.6 | 4.8 | 0.00 | 0.00 | 0.00 | 91 | 1018.0 |
| 20260504044138 | 13 | 47 | 1.6 | 4.8 | 0.00 | 0.00 | 0.00 | 91 | 1018.0 |
| 20260504044037 | 13 | 41 | 1.6 | 4.8 | 0.00 | 0.00 | 0.00 | 91 | 1018.0 |
| 20260504043954 | 13 | 351 | 1.6 | 4.8 | 0.00 | 0.00 | 0.00 | 91 | 1018.1 |
| 20260504043937 | 13 | 322 | 1.6 | 4.8 | 0.00 | 0.00 | 0.00 | 91 | 1018.1 |
| 20260504043837 | 13 | 0 | 1.6 | 4.8 | 0.00 | 0.00 | 0.00 | 91 | 1018.1 |
| 20260504043735 | 13 | 45 | 1.6 | 4.8 | 0.00 | 0.00 | 0.00 | 91 | 1018.1 |
| 20260504043635 | 13 | 39 | 1.6 | 3.2 | 0.00 | 0.00 | 0.00 | 91 | 1018.1 |
| 20260504043535 | 13 | 70 | 1.6 | 3.2 | 0.00 | 0.00 | 0.00 | 91 | 1018.2 |
| 20260504043454 | 13 | 53 | 1.6 | 3.2 | 0.00 | 0.00 | 0.00 | 91 | 1018.2 |
| 20260504043435 | 13 | 38 | 1.6 | 3.2 | 0.00 | 0.00 | 0.00 | 91 | 1018.2 |
| 20260504043334 | 13 | 43 | 1.6 | 3.2 | 0.00 | 0.00 | 0.00 | 91 | 1018.1 |
| 20260504043234 | 13 | 38 | 1.6 | 3.2 | 0.00 | 0.00 | 0.00 | 91 | 1018.1 |
| 20260504043134 | 13 | 63 | 1.6 | 3.2 | 0.00 | 0.00 | 0.00 | 91 | 1018.1 |
| 20260504043034 | 13 | 0 | 1.6 | 3.2 | 0.00 | 0.00 | 0.00 | 91 | 1018.1 |
| 20260504042955 | 13 | 49 | 1.6 | 3.2 | 0.00 | 0.00 | 0.00 | 91 | 1018.1 |
| 20260504042934 | 13 | 40 | 1.6 | 3.2 | 0.00 | 0.00 | 0.00 | 91 | 1018.1 |
| 20260504042831 | 13 | 40 | 1.6 | 3.2 | 0.00 | 0.00 | 0.00 | 91 | 1018.1 |
| 20260504042731 | 13 | 0 | 1.6 | 3.2 | 0.00 | 0.00 | 0.00 | 91 | 1018.1 |
| 20260504042631 | 13 | 8 | 1.6 | 3.2 | 0.00 | 0.00 | 0.00 | 90 | 1018.1 |
| 20260504042532 | 13 | 50 | 1.6 | 3.2 | 0.00 | 0.00 | 0.00 | 90 | 1018.1 |
| 20260504042454 | 13 | 12 | 1.6 | 3.2 | 0.00 | 0.00 | 0.00 | 90 | 1018.1 |
| 20260504042423 | 13 | 28 | 1.6 | 3.2 | 0.00 | 0.00 | 0.00 | 90 | 1018.1 |
| 20260504042323 | 13 | 38 | 1.6 | 3.2 | 0.00 | 0.00 | 0.00 | 90 | 1018.1 |
| 20260504042223 | 13 | 23 | 1.6 | 3.2 | 0.00 | 0.00 | 0.00 | 90 | 1018.1 |
| 20260504042214 | 13 | 34 | 1.6 | 3.2 | 0.00 | 0.00 | 0.00 | 90 | 1018.0 |
| 20260504042116 | 13 | 10 | 1.6 | 3.2 | 0.00 | 0.00 | 0.00 | 90 | 1018.0 |
| 20260504042059 | 13 | 39 | 1.6 | 3.2 | 0.00 | 0.00 | 0.00 | 90 | 1018.0 |
| 20260504041917 | 13 | 9 | 1.6 | 3.2 | 0.00 | 0.00 | 0.00 | 90 | 1018.0 |
| 20260504041813 | 13 | 97 | 1.6 | 3.2 | 0.00 | 0.00 | 0.00 | 90 | 1018.0 |
| 20260504041713 | 13 | 0 | 1.6 | 3.2 | 0.00 | 0.00 | 0.00 | 89 | 1018.0 |
| 20260504041608 | 13 | 59 | 1.6 | 3.2 | 0.00 | 0.00 | 0.00 | 89 | 1018.0 |
| 20260504041501 | 13 | 43 | 1.6 | 3.2 | 0.00 | 0.00 | 0.00 | 89 | 1018.0 |
| 20260504041455 | 13 | 50 | 1.6 | 3.2 | 0.00 | 0.00 | 0.00 | 89 | 1018.0 |
| 20260504041401 | 13 | 50 | 1.6 | 3.2 | 0.00 | 0.00 | 0.00 | 89 | 1018.0 |
| 20260504041301 | 13 | 0 | 1.6 | 3.2 | 0.00 | 0.00 | 0.00 | 89 | 1018.0 |
| 20260504041158 | 13 | 43 | 1.6 | 3.2 | 0.00 | 0.00 | 0.00 | 89 | 1018.0 |
| 20260504041058 | 13 | 0 | 1.6 | 3.2 | 0.00 | 0.00 | 0.00 | 89 | 1017.9 |
| 20260504040956 | 13 | 51 | 1.6 | 3.2 | 0.00 | 0.00 | 0.00 | 89 | 1017.9 |
| 20260504040951 | 13 | 39 | 1.6 | 3.2 | 0.00 | 0.00 | 0.00 | 89 | 1017.9 |
| 20260504040853 | 13 | 60 | 1.6 | 3.2 | 0.00 | 0.00 | 0.00 | 89 | 1017.9 |
| 20260504040752 | 13 | 0 | 1.6 | 3.2 | 0.00 | 0.00 | 0.00 | 89 | 1017.8 |
| 20260504040650 | 13 | 31 | 1.6 | 3.2 | 0.00 | 0.00 | 0.00 | 89 | 1017.8 |
| 20260504040547 | 13 | 16 | 1.6 | 3.2 | 0.00 | 0.00 | 0.00 | 88 | 1017.8 |
| 20260504040449 | 13 | 113 | 1.6 | 3.2 | 0.00 | 0.00 | 0.00 | 88 | 1017.8 |
| 20260504040444 | 13 | 38 | 1.6 | 3.2 | 0.00 | 0.00 | 0.00 | 88 | 1017.8 |
| 20260504040344 | 13 | 49 | 1.6 | 3.2 | 0.00 | 0.00 | 0.00 | 88 | 1017.8 |
| 20260504040245 | 13 | 57 | 1.6 | 3.2 | 0.00 | 0.00 | 0.00 | 88 | 1017.8 |
| 20260504040145 | 13 | 60 | 1.6 | 3.2 | 0.00 | 0.00 | 0.00 | 88 | 1017.8 |
| 20260504040044 | 13 | 35 | 1.6 | 3.2 | 0.00 | 0.00 | 0.00 | 88 | 1017.8 |
| 20260504035949 | 13 | 36 | 1.6 | 3.2 | 0.00 | 0.00 | 0.00 | 88 | 1017.9 |
| 20260504035942 | 13 | 40 | 1.6 | 3.2 | 0.00 | 0.00 | 0.00 | 88 | 1017.9 |
| 20260504035840 | 13 | 42 | 1.6 | 3.2 | 0.00 | 0.00 | 0.00 | 88 | 1017.9 |
| 20260504035735 | 13 | 50 | 1.6 | 3.2 | 0.00 | 0.00 | 0.00 | 87 | 1017.9 |
| 20260504035635 | 13 | 55 | 1.6 | 3.2 | 0.00 | 0.00 | 0.00 | 87 | 1018.0 |
| 20260504035532 | 13 | 54 | 1.6 | 3.2 | 0.00 | 0.00 | 0.00 | 87 | 1018.0 |
| 20260504035449 | 13 | 46 | 1.6 | 3.2 | 0.00 | 0.00 | 0.00 | 87 | 1018.0 |
| 20260504035432 | 13 | 13 | 1.6 | 3.2 | 0.00 | 0.00 | 0.00 | 87 | 1018.0 |
| 20260504035329 | 13 | 7 | 1.6 | 3.2 | 0.00 | 0.00 | 0.00 | 87 | 1018.0 |
| 20260504035229 | 14 | 46 | 1.6 | 3.2 | 0.00 | 0.00 | 0.00 | 87 | 1018.0 |
| 20260504035210 | 14 | 34 | 1.6 | 3.2 | 0.00 | 0.00 | 0.00 | 86 | 1018.0 |
| 20260504035129 | 14 | 25 | 1.6 | 3.2 | 0.00 | 0.00 | 0.00 | 87 | 1018.0 |
| 20260504035054 | 14 | 22 | 1.6 | 3.2 | 0.00 | 0.00 | 0.00 | 86 | 1018.0 |
| 20260504034926 | 14 | 31 | 1.6 | 3.2 | 0.00 | 0.00 | 0.00 | 86 | 1018.0 |
| 20260504034826 | 14 | 297 | 1.6 | 3.2 | 0.00 | 0.00 | 0.00 | 86 | 1018.1 |
| 20260504034726 | 14 | 41 | 1.6 | 3.2 | 0.00 | 0.00 | 0.00 | 85 | 1018.1 |
| 20260504034626 | 14 | 41 | 1.6 | 3.2 | 0.00 | 0.00 | 0.00 | 85 | 1018.1 |
| 20260504034526 | 14 | 38 | 0.0 | 3.2 | 0.00 | 0.00 | 0.00 | 85 | 1018.1 |
| 20260504034449 | 14 | 22 | 0.0 | 3.2 | 0.00 | 0.00 | 0.00 | 85 | 1018.1 |
| 20260504034426 | 14 | 53 | 0.0 | 3.2 | 0.00 | 0.00 | 0.00 | 85 | 1018.1 |
| 20260504034326 | 14 | 53 | 0.0 | 3.2 | 0.00 | 0.00 | 0.00 | 85 | 1018.1 |
| 20260504034226 | 14 | 39 | 0.0 | 3.2 | 0.00 | 0.00 | 0.00 | 85 | 1018.1 |
| 20260504034127 | 14 | 16 | 0.0 | 3.2 | 0.00 | 0.00 | 0.00 | 85 | 1018.1 |
| 20260504034026 | 14 | 39 | 0.0 | 3.2 | 0.00 | 0.00 | 0.00 | 85 | 1018.1 |
| 20260504033946 | 14 | 22 | 0.0 | 3.2 | 0.00 | 0.00 | 0.00 | 85 | 1018.1 |
| 20260504033926 | 14 | 47 | 0.0 | 3.2 | 0.00 | 0.00 | 0.00 | 85 | 1018.1 |
| 20260504033827 | 14 | 345 | 0.0 | 3.2 | 0.00 | 0.00 | 0.00 | 85 | 1018.1 |
| 20260504033727 | 14 | 357 | 1.6 | 3.2 | 0.00 | 0.00 | 0.00 | 85 | 1018.1 |
| 20260504033709 | 14 | 43 | 1.6 | 3.2 | 0.00 | 0.00 | 0.00 | 85 | 1018.0 |
| 20260504033626 | 14 | 0 | 1.6 | 3.2 | 0.00 | 0.00 | 0.00 | 85 | 1018.1 |
| 20260504033549 | 14 | 79 | 1.6 | 3.2 | 0.00 | 0.00 | 0.00 | 85 | 1018.1 |
| 20260504033426 | 14 | 24 | 1.6 | 3.2 | 0.00 | 0.00 | 0.00 | 85 | 1018.0 |
| 20260504033327 | 15 | 302 | 1.6 | 3.2 | 0.00 | 0.00 | 0.00 | 84 | 1018.0 |
| 20260504033226 | 15 | 2 | 1.6 | 3.2 | 0.00 | 0.00 | 0.00 | 84 | 1018.0 |
| 20260504033126 | 15 | 24 | 1.6 | 3.2 | 0.00 | 0.00 | 0.00 | 84 | 1018.0 |
| 20260504033026 | 15 | 50 | 1.6 | 3.2 | 0.00 | 0.00 | 0.00 | 84 | 1018.0 |
| 20260504032943 | 15 | 51 | 1.6 | 3.2 | 0.00 | 0.00 | 0.00 | 84 | 1018.0 |
| 20260504032934 | 15 | 0 | 0.0 | 3.2 | 0.00 | 0.00 | 0.00 | 83 | 1018.0 |
| 20260504032926 | 15 | 20 | 1.6 | 3.2 | 0.00 | 0.00 | 0.00 | 84 | 1018.0 |
| 20260504032826 | 15 | 37 | 1.6 | 3.2 | 0.00 | 0.00 | 0.00 | 84 | 1017.9 |
| 20260504032808 | 15 | 25 | 1.6 | 3.2 | 0.00 | 0.00 | 0.00 | 83 | 1017.9 |
| 20260504032626 | 15 | 65 | 1.6 | 3.2 | 0.00 | 0.00 | 0.00 | 83 | 1017.9 |
| 20260504032549 | 15 | 288 | 0.0 | 3.2 | 0.00 | 0.00 | 0.00 | 83 | 1018.0 |
| 20260504032426 | 15 | 0 | 0.0 | 3.2 | 0.00 | 0.00 | 0.00 | 83 | 1018.0 |
| 20260504032324 | 15 | 328 | 1.6 | 3.2 | 0.00 | 0.00 | 0.00 | 83 | 1018.1 |
| 20260504032218 | 15 | 45 | 0.0 | 3.2 | 0.00 | 0.00 | 0.00 | 83 | 1018.1 |
| 20260504032118 | 15 | 14 | 0.0 | 3.2 | 0.00 | 0.00 | 0.00 | 83 | 1018.0 |
| 20260504032018 | 15 | 0 | 0.0 | 3.2 | 0.00 | 0.00 | 0.00 | 83 | 1018.0 |
| 20260504031944 | 15 | 350 | 0.0 | 3.2 | 0.00 | 0.00 | 0.00 | 83 | 1018.0 |
| 20260504031918 | 15 | 323 | 0.0 | 3.2 | 0.00 | 0.00 | 0.00 | 83 | 1018.0 |
| 20260504031817 | 15 | 7 | 0.0 | 3.2 | 0.00 | 0.00 | 0.00 | 83 | 1018.0 |
| 20260504031717 | 15 | 60 | 1.6 | 3.2 | 0.00 | 0.00 | 0.00 | 83 | 1018.0 |
| 20260504031618 | 15 | 329 | 1.6 | 3.2 | 0.00 | 0.00 | 0.00 | 83 | 1018.0 |
| 20260504031519 | 15 | 0 | 1.6 | 3.2 | 0.00 | 0.00 | 0.00 | 82 | 1018.0 |
| 20260504031443 | 15 | 44 | 1.6 | 3.2 | 0.00 | 0.00 | 0.00 | 82 | 1018.0 |
| 20260504031417 | 15 | 76 | 1.6 | 3.2 | 0.00 | 0.00 | 0.00 | 82 | 1018.0 |
| 20260504031317 | 15 | 3 | 1.6 | 3.2 | 0.00 | 0.00 | 0.00 | 83 | 1018.0 |
| 20260504031218 | 15 | 0 | 1.6 | 3.2 | 0.00 | 0.00 | 0.00 | 83 | 1017.9 |
| 20260504031118 | 15 | 266 | 1.6 | 3.2 | 0.00 | 0.00 | 0.00 | 83 | 1017.9 |
| 20260504031018 | 15 | 17 | 1.6 | 3.2 | 0.00 | 0.00 | 0.00 | 82 | 1017.9 |
| 20260504030941 | 15 | 54 | 1.6 | 3.2 | 0.00 | 0.00 | 0.00 | 82 | 1017.9 |
| 20260504030918 | 15 | 0 | 1.6 | 3.2 | 0.00 | 0.00 | 0.00 | 82 | 1017.9 |
| 20260504030817 | 15 | 34 | 1.6 | 3.2 | 0.00 | 0.00 | 0.00 | 82 | 1017.9 |
| 20260504030717 | 15 | 282 | 1.6 | 3.2 | 0.00 | 0.00 | 0.00 | 82 | 1017.9 |
| 20260504030617 | 15 | 71 | 1.6 | 3.2 | 0.00 | 0.00 | 0.00 | 81 | 1017.9 |
| 20260504030518 | 15 | 39 | 1.6 | 3.2 | 0.00 | 0.00 | 0.00 | 81 | 1017.9 |
| 20260504030418 | 15 | 0 | 1.6 | 3.2 | 0.00 | 0.00 | 0.00 | 81 | 1017.9 |
| 20260504030314 | 15 | 40 | 1.6 | 3.2 | 0.00 | 0.00 | 0.00 | 81 | 1017.8 |
| 20260504030214 | 15 | 16 | 1.6 | 3.2 | 0.00 | 0.00 | 0.00 | 81 | 1017.8 |
| 20260504030112 | 15 | 39 | 1.6 | 3.2 | 0.00 | 0.00 | 0.00 | 81 | 1017.8 |
| 20260504030012 | 15 | 33 | 1.6 | 3.2 | 0.00 | 0.00 | 0.00 | 81 | 1017.8 |
| 20260504025938 | 15 | 52 | 1.6 | 3.2 | 0.00 | 0.00 | 0.00 | 81 | 1017.8 |
| 20260504025912 | 15 | 320 | 1.6 | 3.2 | 0.00 | 0.00 | 0.00 | 80 | 1017.8 |
| 20260504025812 | 15 | 94 | 1.6 | 3.2 | 0.00 | 0.00 | 0.00 | 80 | 1017.8 |
| 20260504025712 | 15 | 82 | 1.6 | 3.2 | 0.00 | 0.00 | 0.00 | 80 | 1017.8 |
| 20260504025603 | 15 | 65 | 1.6 | 3.2 | 0.00 | 0.00 | 0.00 | 80 | 1017.9 |
| 20260504025503 | 15 | 75 | 1.6 | 3.2 | 0.00 | 0.00 | 0.00 | 80 | 1017.9 |
| 20260504025438 | 15 | 36 | 1.6 | 3.2 | 0.00 | 0.00 | 0.00 | 80 | 1017.9 |
| 20260504025403 | 16 | 38 | 1.6 | 4.8 | 0.00 | 0.00 | 0.00 | 80 | 1017.9 |
| 20260504025304 | 16 | 0 | 1.6 | 4.8 | 0.00 | 0.00 | 0.00 | 80 | 1017.9 |
| 20260504025154 | 16 | 17 | 1.6 | 4.8 | 0.00 | 0.00 | 0.00 | 80 | 1017.9 |
| 20260504025053 | 16 | 89 | 1.6 | 4.8 | 0.00 | 0.00 | 0.00 | 80 | 1017.9 |
| 20260504024951 | 16 | 53 | 1.6 | 4.8 | 0.00 | 0.00 | 0.00 | 80 | 1017.9 |
| 20260504024937 | 16 | 68 | 1.6 | 4.8 | 0.00 | 0.00 | 0.00 | 80 | 1017.9 |
| 20260504024852 | 16 | 6 | 1.6 | 4.8 | 0.00 | 0.00 | 0.00 | 80 | 1017.9 |
| 20260504024751 | 16 | 28 | 1.6 | 4.8 | 0.00 | 0.00 | 0.00 | 80 | 1017.9 |
| 20260504024651 | 16 | 34 | 1.6 | 4.8 | 0.00 | 0.00 | 0.00 | 80 | 1017.9 |
| 20260504024552 | 16 | 9 | 1.6 | 4.8 | 0.00 | 0.00 | 0.00 | 80 | 1017.9 |
| 20260504024448 | 16 | 45 | 1.6 | 4.8 | 0.00 | 0.00 | 0.00 | 80 | 1017.9 |
| 20260504024434 | 16 | 27 | 1.6 | 4.8 | 0.00 | 0.00 | 0.00 | 80 | 1017.9 |
| 20260504024345 | 16 | 54 | 1.6 | 3.2 | 0.00 | 0.00 | 0.00 | 79 | 1017.9 |
| 20260504024245 | 16 | 36 | 1.6 | 3.2 | 0.00 | 0.00 | 0.00 | 79 | 1017.9 |
| 20260504024145 | 16 | 36 | 1.6 | 3.2 | 0.00 | 0.00 | 0.00 | 79 | 1017.9 |
| 20260504024045 | 16 | 30 | 1.6 | 3.2 | 0.00 | 0.00 | 0.00 | 78 | 1018.0 |
| 20260504023945 | 16 | 66 | 1.6 | 3.2 | 0.00 | 0.00 | 0.00 | 78 | 1018.0 |
| 20260504023929 | 16 | 39 | 1.6 | 3.2 | 0.00 | 0.00 | 0.00 | 78 | 1018.0 |
| 20260504023844 | 16 | 0 | 1.6 | 3.2 | 0.00 | 0.00 | 0.00 | 78 | 1018.0 |
| 20260504023744 | 16 | 45 | 1.6 | 3.2 | 0.00 | 0.00 | 0.00 | 78 | 1018.0 |
| 20260504023644 | 16 | 0 | 1.6 | 3.2 | 0.00 | 0.00 | 0.00 | 78 | 1018.0 |
| 20260504023546 | 16 | 303 | 1.6 | 3.2 | 0.00 | 0.00 | 0.00 | 78 | 1018.0 |
| 20260504023444 | 16 | 186 | 1.6 | 3.2 | 0.00 | 0.00 | 0.00 | 78 | 1018.0 |
| 20260504023428 | 16 | 0 | 1.6 | 3.2 | 0.00 | 0.00 | 0.00 | 78 | 1018.0 |
| 20260504023345 | 16 | 34 | 1.6 | 3.2 | 0.00 | 0.00 | 0.00 | 78 | 1017.9 |
| 20260504023245 | 16 | 58 | 1.6 | 3.2 | 0.00 | 0.00 | 0.00 | 78 | 1017.9 |
| 20260504023145 | 16 | 34 | 1.6 | 3.2 | 0.00 | 0.00 | 0.00 | 78 | 1017.9 |
| 20260504023045 | 16 | 53 | 1.6 | 3.2 | 0.00 | 0.00 | 0.00 | 78 | 1017.9 |
| 20260504022945 | 16 | 53 | 1.6 | 3.2 | 0.00 | 0.00 | 0.00 | 77 | 1017.9 |
| 20260504022929 | 16 | 52 | 1.6 | 3.2 | 0.00 | 0.00 | 0.00 | 77 | 1017.9 |
| 20260504022842 | 17 | 49 | 1.6 | 3.2 | 0.00 | 0.00 | 0.00 | 77 | 1017.9 |
| 20260504022742 | 17 | 50 | 1.6 | 3.2 | 0.00 | 0.00 | 0.00 | 77 | 1017.9 |
| 20260504022642 | 17 | 57 | 1.6 | 3.2 | 0.00 | 0.00 | 0.00 | 77 | 1017.9 |
| 20260504022542 | 17 | 15 | 1.6 | 3.2 | 0.00 | 0.00 | 0.00 | 77 | 1017.9 |
| 20260504022442 | 17 | 43 | 1.6 | 3.2 | 0.00 | 0.00 | 0.00 | 77 | 1017.9 |
| 20260504022429 | 17 | 34 | 1.6 | 3.2 | 0.00 | 0.00 | 0.00 | 77 | 1017.9 |
| 20260504022343 | 17 | 40 | 0.0 | 3.2 | 0.00 | 0.00 | 0.00 | 76 | 1017.9 |
| 20260504022243 | 17 | 64 | 0.0 | 3.2 | 0.00 | 0.00 | 0.00 | 76 | 1017.9 |
| 20260504022143 | 17 | 54 | 0.0 | 3.2 | 0.00 | 0.00 | 0.00 | 76 | 1017.9 |
| 20260504022039 | 17 | 0 | 0.0 | 3.2 | 0.00 | 0.00 | 0.00 | 76 | 1017.9 |
| 20260504021939 | 17 | 0 | 0.0 | 3.2 | 0.00 | 0.00 | 0.00 | 76 | 1017.9 |
| 20260504021926 | 17 | 46 | 0.0 | 3.2 | 0.00 | 0.00 | 0.00 | 76 | 1017.9 |
| 20260504021839 | 17 | 52 | 0.0 | 3.2 | 0.00 | 0.00 | 0.00 | 76 | 1017.9 |
| 20260504021739 | 17 | 52 | 0.0 | 3.2 | 0.00 | 0.00 | 0.00 | 75 | 1017.8 |
| 20260504021639 | 17 | 0 | 1.6 | 4.8 | 0.00 | 0.00 | 0.00 | 75 | 1017.8 |
| 20260504021539 | 17 | 37 | 1.6 | 4.8 | 0.00 | 0.00 | 0.00 | 75 | 1017.8 |
| 20260504021439 | 17 | 252 | 1.6 | 4.8 | 0.00 | 0.00 | 0.00 | 74 | 1017.8 |
| 20260504021426 | 17 | 295 | 1.6 | 6.4 | 0.00 | 0.00 | 0.00 | 74 | 1017.8 |
| 20260504021345 | 17 | 350 | 1.6 | 6.4 | 0.00 | 0.00 | 0.00 | 74 | 1017.7 |
| 20260504021240 | 17 | 348 | 1.6 | 6.4 | 0.00 | 0.00 | 0.00 | 74 | 1017.7 |
| 20260504021139 | 17 | 105 | 3.2 | 6.4 | 0.00 | 0.00 | 0.00 | 74 | 1017.8 |
| 20260504021037 | 17 | 100 | 3.2 | 6.4 | 0.00 | 0.00 | 0.00 | 74 | 1017.8 |
| 20260504020932 | 17 | 90 | 3.2 | 6.4 | 0.00 | 0.00 | 0.00 | 74 | 1017.8 |
| 20260504020927 | 17 | 71 | 3.2 | 6.4 | 0.00 | 0.00 | 0.00 | 74 | 1017.8 |
| 20260504020830 | 17 | 80 | 3.2 | 6.4 | 0.00 | 0.00 | 0.00 | 73 | 1017.8 |
| 20260504020730 | 17 | 81 | 3.2 | 6.4 | 0.00 | 0.00 | 0.00 | 73 | 1017.8 |
| 20260504020623 | 17 | 64 | 3.2 | 6.4 | 0.00 | 0.00 | 0.00 | 73 | 1017.8 |
| 20260504020522 | 17 | 53 | 3.2 | 6.4 | 0.00 | 0.00 | 0.00 | 73 | 1017.8 |
| 20260504020423 | 17 | 74 | 3.2 | 6.4 | 0.00 | 0.00 | 0.00 | 73 | 1017.8 |
| 20260504020419 | 17 | 79 | 3.2 | 6.4 | 0.00 | 0.00 | 0.00 | 73 | 1017.8 |
| 20260504020320 | 17 | 95 | 3.2 | 6.4 | 0.00 | 0.00 | 0.00 | 73 | 1017.8 |
| 20260504020220 | 17 | 87 | 3.2 | 6.4 | 0.00 | 0.00 | 0.00 | 72 | 1017.8 |
| 20260504020119 | 17 | 78 | 3.2 | 6.4 | 0.00 | 0.00 | 0.00 | 72 | 1017.8 |
| 20260504020019 | 18 | 58 | 3.2 | 6.4 | 0.00 | 0.00 | 0.00 | 72 | 1017.8 |
| 20260504015921 | 18 | 44 | 3.2 | 6.4 | 0.00 | 0.00 | 0.00 | 72 | 1017.8 |
| 20260504015915 | 18 | 92 | 3.2 | 6.4 | 0.00 | 0.00 | 0.00 | 72 | 1017.8 |
| 20260504015813 | 18 | 73 | 3.2 | 6.4 | 0.00 | 0.00 | 0.00 | 72 | 1017.8 |
| 20260504015712 | 18 | 75 | 3.2 | 6.4 | 0.00 | 0.00 | 0.00 | 72 | 1017.8 |
| 20260504015610 | 18 | 101 | 3.2 | 6.4 | 0.00 | 0.00 | 0.00 | 71 | 1017.8 |
| 20260504015510 | 18 | 76 | 3.2 | 6.4 | 0.00 | 0.00 | 0.00 | 71 | 1017.8 |
| 20260504015421 | 18 | 82 | 3.2 | 6.4 | 0.00 | 0.00 | 0.00 | 71 | 1017.8 |
| 20260504015407 | 18 | 84 | 3.2 | 6.4 | 0.00 | 0.00 | 0.00 | 71 | 1017.7 |
| 20260504015257 | 18 | 66 | 3.2 | 6.4 | 0.00 | 0.00 | 0.00 | 71 | 1017.7 |
| 20260504015159 | 18 | 99 | 3.2 | 6.4 | 0.00 | 0.00 | 0.00 | 71 | 1017.7 |
| 20260504015058 | 18 | 62 | 3.2 | 6.4 | 0.00 | 0.00 | 0.00 | 71 | 1017.8 |
| 20260504014957 | 18 | 93 | 3.2 | 6.4 | 0.00 | 0.00 | 0.00 | 71 | 1017.8 |
| 20260504014921 | 18 | 67 | 3.2 | 6.4 | 0.00 | 0.00 | 0.00 | 71 | 1017.8 |
| 20260504014859 | 18 | 50 | 3.2 | 6.4 | 0.00 | 0.00 | 0.00 | 71 | 1017.8 |
| 20260504014758 | 18 | 64 | 3.2 | 4.8 | 0.00 | 0.00 | 0.00 | 71 | 1017.8 |
| 20260504014652 | 18 | 79 | 3.2 | 4.8 | 0.00 | 0.00 | 0.00 | 71 | 1017.8 |
| 20260504014552 | 18 | 81 | 3.2 | 4.8 | 0.00 | 0.00 | 0.00 | 70 | 1017.8 |
| 20260504014452 | 18 | 88 | 3.2 | 6.4 | 0.00 | 0.00 | 0.00 | 70 | 1017.8 |
| 20260504014421 | 18 | 69 | 3.2 | 6.4 | 0.00 | 0.00 | 0.00 | 70 | 1017.8 |
| 20260504014352 | 18 | 69 | 3.2 | 6.4 | 0.00 | 0.00 | 0.00 | 71 | 1017.8 |
| 20260504014252 | 18 | 82 | 3.2 | 6.4 | 0.00 | 0.00 | 0.00 | 71 | 1017.8 |
| 20260504014152 | 18 | 66 | 3.2 | 6.4 | 0.00 | 0.00 | 0.00 | 71 | 1017.8 |
| 20260504014052 | 18 | 104 | 3.2 | 6.4 | 0.00 | 0.00 | 0.00 | 71 | 1017.8 |
| 20260504013949 | 18 | 40 | 3.2 | 6.4 | 0.00 | 0.00 | 0.00 | 70 | 1017.8 |
| 20260504013921 | 18 | 92 | 3.2 | 6.4 | 0.00 | 0.00 | 0.00 | 70 | 1017.8 |
| 20260504013849 | 18 | 154 | 3.2 | 6.4 | 0.00 | 0.00 | 0.00 | 71 | 1017.8 |
| 20260504013749 | 18 | 100 | 3.2 | 6.4 | 0.00 | 0.00 | 0.00 | 70 | 1017.9 |
| 20260504013649 | 18 | 81 | 3.2 | 6.4 | 0.00 | 0.00 | 0.00 | 70 | 1017.9 |
| 20260504013546 | 18 | 76 | 3.2 | 6.4 | 0.00 | 0.00 | 0.00 | 70 | 1017.9 |
| 20260504013444 | 18 | 92 | 3.2 | 4.8 | 0.00 | 0.00 | 0.00 | 70 | 1017.9 |
| 20260504013421 | 18 | 72 | 3.2 | 4.8 | 0.00 | 0.00 | 0.00 | 70 | 1017.9 |
| 20260504013348 | 18 | 101 | 3.2 | 4.8 | 0.00 | 0.00 | 0.00 | 70 | 1017.9 |
| 20260504013235 | 18 | 94 | 3.2 | 4.8 | 0.00 | 0.00 | 0.00 | 70 | 1017.9 |
| 20260504013134 | 18 | 47 | 3.2 | 4.8 | 0.00 | 0.00 | 0.00 | 70 | 1017.9 |
| 20260504013035 | 18 | 63 | 3.2 | 4.8 | 0.00 | 0.00 | 0.00 | 70 | 1017.9 |
| 20260504012925 | 18 | 72 | 1.6 | 4.8 | 0.00 | 0.00 | 0.00 | 70 | 1017.9 |
| 20260504012918 | 18 | 71 | 1.6 | 4.8 | 0.00 | 0.00 | 0.00 | 70 | 1017.8 |
| 20260504012826 | 18 | 65 | 1.6 | 4.8 | 0.00 | 0.00 | 0.00 | 70 | 1017.8 |
| 20260504012726 | 18 | 75 | 1.6 | 4.8 | 0.00 | 0.00 | 0.00 | 70 | 1017.8 |
| 20260504012623 | 18 | 76 | 1.6 | 3.2 | 0.00 | 0.00 | 0.00 | 70 | 1017.8 |
| 20260504012521 | 18 | 69 | 1.6 | 3.2 | 0.00 | 0.00 | 0.00 | 70 | 1017.8 |
| 20260504012420 | 18 | 65 | 0.0 | 3.2 | 0.00 | 0.00 | 0.00 | 70 | 1017.8 |
| 20260504012415 | 18 | 55 | 0.0 | 3.2 | 0.00 | 0.00 | 0.00 | 70 | 1017.8 |
| 20260504012319 | 18 | 69 | 0.0 | 3.2 | 0.00 | 0.00 | 0.00 | 70 | 1017.8 |
| 20260504012219 | 18 | 53 | 0.0 | 3.2 | 0.00 | 0.00 | 0.00 | 69 | 1017.8 |
| 20260504012120 | 18 | 34 | 1.6 | 4.8 | 0.00 | 0.00 | 0.00 | 69 | 1017.8 |
| 20260504012019 | 18 | 60 | 1.6 | 4.8 | 0.00 | 0.00 | 0.00 | 69 | 1017.8 |
| 20260504011921 | 19 | 191 | 1.6 | 4.8 | 0.00 | 0.00 | 0.00 | 69 | 1017.8 |
| 20260504011915 | 19 | 202 | 1.6 | 4.8 | 0.00 | 0.00 | 0.00 | 69 | 1017.8 |
| 20260504011819 | 19 | 66 | 1.6 | 4.8 | 0.00 | 0.00 | 0.00 | 69 | 1017.8 |
| 20260504011716 | 19 | 95 | 1.6 | 4.8 | 0.00 | 0.00 | 0.00 | 68 | 1017.7 |
| 20260504011639 | 19 | 66 | 1.6 | 4.8 | 0.00 | 0.00 | 0.00 | 68 | 1017.7 |
| 20260504011616 | 19 | 0 | 1.6 | 4.8 | 0.00 | 0.00 | 0.00 | 68 | 1017.7 |
| 20260504011526 | 19 | 154 | 1.6 | 4.8 | 0.00 | 0.00 | 0.00 | 68 | 1017.7 |
| 20260504011520 | 19 | 66 | 1.6 | 4.8 | 0.00 | 0.00 | 0.00 | 68 | 1017.7 |
| 20260504011314 | 19 | 82 | 1.6 | 4.8 | 0.00 | 0.00 | 0.00 | 68 | 1017.7 |
| 20260504011214 | 19 | 76 | 1.6 | 4.8 | 0.00 | 0.00 | 0.00 | 68 | 1017.7 |
| 20260504011114 | 19 | 99 | 1.6 | 4.8 | 0.00 | 0.00 | 0.00 | 68 | 1017.7 |
| 20260504011014 | 19 | 72 | 1.6 | 4.8 | 0.00 | 0.00 | 0.00 | 68 | 1017.7 |
| 20260504010914 | 19 | 59 | 1.6 | 3.2 | 0.00 | 0.00 | 0.00 | 68 | 1017.8 |
| 20260504010808 | 19 | 75 | 1.6 | 3.2 | 0.00 | 0.00 | 0.00 | 68 | 1017.8 |
| 20260504010707 | 19 | 74 | 1.6 | 3.2 | 0.00 | 0.00 | 0.00 | 67 | 1017.7 |
| 20260504010607 | 19 | 52 | 1.6 | 3.2 | 0.00 | 0.00 | 0.00 | 67 | 1017.7 |
| 20260504010508 | 19 | 85 | 1.6 | 3.2 | 0.00 | 0.00 | 0.00 | 67 | 1017.7 |
| 20260504010412 | 20 | 67 | 1.6 | 3.2 | 0.00 | 0.00 | 0.00 | 67 | 1017.7 |
| 20260504010408 | 20 | 71 | 1.6 | 3.2 | 0.00 | 0.00 | 0.00 | 67 | 1017.7 |
| 20260504010308 | 20 | 78 | 1.6 | 3.2 | 0.00 | 0.00 | 0.00 | 67 | 1017.7 |
| 20260504010208 | 20 | 88 | 0.0 | 3.2 | 0.00 | 0.00 | 0.00 | 66 | 1017.7 |
| 20260504010105 | 20 | 59 | 0.0 | 3.2 | 0.00 | 0.00 | 0.00 | 66 | 1017.8 |
| 20260504010002 | 20 | 25 | 0.0 | 3.2 | 0.00 | 0.00 | 0.00 | 66 | 1017.8 |
| 20260504005909 | 20 | 86 | 0.0 | 4.8 | 0.00 | 0.00 | 0.00 | 66 | 1017.8 |
| 20260504005900 | 20 | 57 | 0.0 | 4.8 | 0.00 | 0.00 | 0.00 | 66 | 1017.8 |
| 20260504005758 | 20 | 97 | 0.0 | 4.8 | 0.00 | 0.00 | 0.00 | 65 | 1017.8 |
| 20260504005658 | 20 | 159 | 0.0 | 4.8 | 0.00 | 0.00 | 0.00 | 65 | 1017.8 |
| 20260504005556 | 20 | 77 | 1.6 | 4.8 | 0.00 | 0.00 | 0.00 | 65 | 1017.8 |
| 20260504005455 | 20 | 0 | 1.6 | 4.8 | 0.00 | 0.00 | 0.00 | 65 | 1017.8 |
| 20260504005407 | 20 | 53 | 1.6 | 4.8 | 0.00 | 0.00 | 0.00 | 64 | 1017.8 |
| 20260504005353 | 20 | 64 | 1.6 | 4.8 | 0.00 | 0.00 | 0.00 | 64 | 1017.8 |
| 20260504005252 | 20 | 31 | 1.6 | 4.8 | 0.00 | 0.00 | 0.00 | 64 | 1017.7 |
| 20260504005151 | 20 | 139 | 1.6 | 4.8 | 0.00 | 0.00 | 0.00 | 64 | 1017.7 |
| 20260504005049 | 20 | 0 | 1.6 | 4.8 | 0.00 | 0.00 | 0.00 | 64 | 1017.7 |
| 20260504004949 | 20 | 88 | 1.6 | 4.8 | 0.00 | 0.00 | 0.00 | 64 | 1017.7 |
| 20260504004903 | 20 | 214 | 0.0 | 4.8 | 0.00 | 0.00 | 0.00 | 64 | 1017.7 |
| 20260504004849 | 20 | 89 | 0.0 | 4.8 | 0.00 | 0.00 | 0.00 | 64 | 1017.7 |
| 20260504004741 | 20 | 79 | 0.0 | 4.8 | 0.00 | 0.00 | 0.00 | 64 | 1017.7 |
| 20260504004641 | 20 | 51 | 0.0 | 4.8 | 0.00 | 0.00 | 0.00 | 63 | 1017.7 |
| 20260504004539 | 20 | 62 | 0.0 | 4.8 | 0.00 | 0.00 | 0.00 | 63 | 1017.7 |
| 20260504004437 | 20 | 0 | 0.0 | 4.8 | 0.00 | 0.00 | 0.00 | 63 | 1017.8 |
| 20260504004403 | 20 | 0 | 0.0 | 4.8 | 0.00 | 0.00 | 0.00 | 63 | 1017.8 |
| 20260504004335 | 20 | 182 | 1.6 | 4.8 | 0.00 | 0.00 | 0.00 | 63 | 1017.8 |
| 20260504004235 | 20 | 49 | 0.0 | 4.8 | 0.00 | 0.00 | 0.00 | 63 | 1017.8 |
| 20260504004135 | 20 | 157 | 0.0 | 4.8 | 0.00 | 0.00 | 0.00 | 63 | 1017.8 |
| 20260504004034 | 21 | 0 | 1.6 | 4.8 | 0.00 | 0.00 | 0.00 | 63 | 1017.8 |
| 20260504003934 | 21 | 171 | 1.6 | 4.8 | 0.00 | 0.00 | 0.00 | 62 | 1017.8 |
| 20260504003857 | 21 | 79 | 1.6 | 4.8 | 0.00 | 0.00 | 0.00 | 62 | 1017.8 |
| 20260504003844 | 21 | 100 | 1.6 | 6.4 | 0.00 | 0.00 | 0.00 | 61 | 1017.8 |
| 20260504003832 | 21 | 271 | 1.6 | 4.8 | 0.00 | 0.00 | 0.00 | 62 | 1017.8 |
| 20260504003734 | 21 | 82 | 1.6 | 4.8 | 0.00 | 0.00 | 0.00 | 62 | 1017.8 |
| 20260504003729 | 21 | 166 | 1.6 | 4.8 | 0.00 | 0.00 | 0.00 | 62 | 1017.8 |
| 20260504003525 | 21 | 0 | 1.6 | 4.8 | 0.00 | 0.00 | 0.00 | 61 | 1017.8 |
| 20260504003503 | 21 | 191 | 1.6 | 6.4 | 0.00 | 0.00 | 0.00 | 61 | 1017.8 |
| 20260504003326 | 21 | 0 | 1.6 | 6.4 | 0.00 | 0.00 | 0.00 | 61 | 1017.8 |
| 20260504003226 | 21 | 0 | 1.6 | 6.4 | 0.00 | 0.00 | 0.00 | 61 | 1017.7 |
| 20260504003120 | 21 | 72 | 1.6 | 6.4 | 0.00 | 0.00 | 0.00 | 61 | 1017.7 |
| 20260504003021 | 21 | 290 | 1.6 | 6.4 | 0.00 | 0.00 | 0.00 | 61 | 1017.7 |
| 20260504002917 | 21 | 132 | 1.6 | 6.4 | 0.00 | 0.00 | 0.00 | 60 | 1017.7 |
| 20260504002858 | 21 | 88 | 1.6 | 6.4 | 0.00 | 0.00 | 0.00 | 60 | 1017.7 |
| 20260504002816 | 21 | 0 | 1.6 | 6.4 | 0.00 | 0.00 | 0.00 | 60 | 1017.7 |
| 20260504002714 | 21 | 130 | 1.6 | 6.4 | 0.00 | 0.00 | 0.00 | 60 | 1017.7 |
| 20260504002611 | 21 | 83 | 1.6 | 6.4 | 0.00 | 0.00 | 0.00 | 60 | 1017.7 |
| 20260504002508 | 21 | 178 | 1.6 | 6.4 | 0.00 | 0.00 | 0.00 | 60 | 1017.6 |
| 20260504002405 | 21 | 0 | 1.6 | 6.4 | 0.00 | 0.00 | 0.00 | 60 | 1017.6 |
| 20260504002358 | 21 | 0 | 1.6 | 6.4 | 0.00 | 0.00 | 0.00 | 60 | 1017.6 |
| 20260504002305 | 21 | 23 | 1.6 | 6.4 | 0.00 | 0.00 | 0.00 | 60 | 1017.6 |
| 20260504002202 | 21 | 77 | 1.6 | 4.8 | 0.00 | 0.00 | 0.00 | 60 | 1017.6 |
| 20260504002102 | 21 | 87 | 1.6 | 4.8 | 0.00 | 0.00 | 0.00 | 60 | 1017.6 |
| 20260504001959 | 21 | 33 | 1.6 | 4.8 | 0.00 | 0.00 | 0.00 | 59 | 1017.6 |
| 20260504001900 | 21 | 117 | 1.6 | 4.8 | 0.00 | 0.00 | 0.00 | 59 | 1017.6 |
| 20260504001855 | 21 | 127 | 1.6 | 4.8 | 0.00 | 0.00 | 0.00 | 59 | 1017.6 |
| 20260504001759 | 21 | 64 | 1.6 | 8.0 | 0.00 | 0.00 | 0.00 | 59 | 1017.6 |
| 20260504001658 | 21 | 86 | 3.2 | 8.0 | 0.00 | 0.00 | 0.00 | 59 | 1017.6 |
| 20260504001600 | 21 | 84 | 3.2 | 9.7 | 0.00 | 0.00 | 0.00 | 59 | 1017.6 |
| 20260504001457 | 21 | 94 | 3.2 | 9.7 | 0.00 | 0.00 | 0.00 | 59 | 1017.6 |
| 20260504001356 | 22 | 308 | 3.2 | 9.7 | 0.00 | 0.00 | 0.00 | 59 | 1017.6 |
| 20260504001253 | 22 | 188 | 3.2 | 9.7 | 0.00 | 0.00 | 0.00 | 59 | 1017.6 |
| 20260504001150 | 22 | 0 | 3.2 | 9.7 | 0.00 | 0.00 | 0.00 | 58 | 1017.6 |
| 20260504001044 | 22 | 53 | 3.2 | 9.7 | 0.00 | 0.00 | 0.00 | 58 | 1017.6 |
| 20260504000942 | 22 | 91 | 3.2 | 9.7 | 0.00 | 0.00 | 0.00 | 58 | 1017.6 |
| 20260504000855 | 22 | 87 | 3.2 | 9.7 | 0.00 | 0.00 | 0.00 | 57 | 1017.6 |
| 20260504000841 | 22 | 75 | 3.2 | 9.7 | 0.00 | 0.00 | 0.00 | 57 | 1017.6 |
| 20260504000829 | 22 | 87 | 3.2 | 11.3 | 0.00 | 0.00 | 0.00 | 56 | 1017.7 |
| 20260504000741 | 22 | 71 | 3.2 | 9.7 | 0.00 | 0.00 | 0.00 | 57 | 1017.6 |
| 20260504000717 | 22 | 91 | 3.2 | 9.7 | 0.00 | 0.00 | 0.00 | 57 | 1017.6 |
| 20260504000547 | 22 | 163 | 3.2 | 8.0 | 0.00 | 0.00 | 0.00 | 57 | 1017.6 |
| 20260504000457 | 22 | 274 | 3.2 | 11.3 | 0.00 | 0.00 | 0.00 | 56 | 1017.7 |
| 20260504000329 | 22 | 98 | 3.2 | 11.3 | 0.00 | 0.00 | 0.00 | 56 | 1017.7 |
| 20260504000229 | 22 | 129 | 3.2 | 11.3 | 0.00 | 0.00 | 0.00 | 56 | 1017.7 |
| 20260504000129 | 22 | 98 | 3.2 | 11.3 | 0.00 | 0.00 | 0.00 | 56 | 1017.7 |
| 20260504000110 | 23 | 174 | 3.2 | 11.3 | 0.00 | 0.00 | 0.00 | 55 | 1017.8 |
| 20260504000029 | 23 | 144 | 3.2 | 11.3 | 0.00 | 0.00 | 0.00 | 55 | 1017.8 |
| 20260503235959 | 23 | 188 | 3.2 | 11.3 | 0.00 | 0.00 | 0.00 | 55 | 1017.8 |
| 20260503235830 | 23 | 101 | 3.2 | 11.3 | 0.00 | 0.00 | 0.00 | 55 | 1017.8 |
| 20260503235730 | 23 | 122 | 3.2 | 11.3 | 0.00 | 0.00 | 0.00 | 55 | 1017.8 |
| 20260503235627 | 23 | 94 | 3.2 | 11.3 | 0.00 | 0.00 | 0.00 | 55 | 1017.8 |
| 20260503235612 | 23 | 93 | 3.2 | 9.7 | 0.00 | 0.00 | 0.00 | 55 | 1017.7 |
| 20260503235527 | 23 | 73 | 3.2 | 11.3 | 0.00 | 0.00 | 0.00 | 55 | 1017.8 |
| 20260503235457 | 23 | 74 | 3.2 | 9.7 | 0.00 | 0.00 | 0.00 | 55 | 1017.7 |
| 20260503235326 | 23 | 122 | 3.2 | 9.7 | 0.00 | 0.00 | 0.00 | 55 | 1017.7 |
| 20260503235227 | 23 | 115 | 3.2 | 9.7 | 0.00 | 0.00 | 0.00 | 55 | 1017.7 |
| 20260503235126 | 23 | 112 | 3.2 | 9.7 | 0.00 | 0.00 | 0.00 | 54 | 1017.7 |
| 20260503235112 | 23 | 112 | 3.2 | 12.9 | 0.00 | 0.00 | 0.00 | 54 | 1017.7 |
| 20260503235027 | 23 | 76 | 3.2 | 9.7 | 0.00 | 0.00 | 0.00 | 54 | 1017.7 |
| 20260503234954 | 23 | 129 | 3.2 | 9.7 | 0.00 | 0.00 | 0.00 | 54 | 1017.7 |
| 20260503234821 | 23 | 189 | 3.2 | 12.9 | 0.00 | 0.00 | 0.00 | 54 | 1017.7 |
| 20260503234720 | 23 | 186 | 3.2 | 12.9 | 0.00 | 0.00 | 0.00 | 54 | 1017.7 |
| 20260503234621 | 23 | 145 | 3.2 | 12.9 | 0.00 | 0.00 | 0.00 | 54 | 1017.7 |
| 20260503234521 | 23 | 103 | 3.2 | 12.9 | 0.00 | 0.00 | 0.00 | 54 | 1017.7 |
| 20260503234421 | 23 | 89 | 3.2 | 12.9 | 0.00 | 0.00 | 0.00 | 54 | 1017.7 |
| 20260503234350 | 23 | 90 | 3.2 | 12.9 | 0.00 | 0.00 | 0.00 | 54 | 1017.7 |
| 20260503234321 | 23 | 114 | 3.2 | 12.9 | 0.00 | 0.00 | 0.00 | 53 | 1017.8 |
| 20260503234221 | 23 | 99 | 3.2 | 12.9 | 0.00 | 0.00 | 0.00 | 53 | 1017.8 |
| 20260503234121 | 23 | 96 | 3.2 | 12.9 | 0.00 | 0.00 | 0.00 | 53 | 1017.8 |
| 20260503234110 | 23 | 128 | 3.2 | 12.9 | 0.00 | 0.00 | 0.00 | 54 | 1017.9 |
| 20260503234015 | 23 | 160 | 3.2 | 12.9 | 0.00 | 0.00 | 0.00 | 53 | 1017.8 |
| 20260503233952 | 23 | 111 | 3.2 | 12.9 | 0.00 | 0.00 | 0.00 | 54 | 1017.9 |
| 20260503233812 | 23 | 191 | 3.2 | 11.3 | 0.00 | 0.00 | 0.00 | 53 | 1017.9 |
| 20260503233709 | 23 | 215 | 3.2 | 11.3 | 0.00 | 0.00 | 0.00 | 53 | 1017.9 |
| 20260503233609 | 23 | 171 | 3.2 | 11.3 | 0.00 | 0.00 | 0.00 | 54 | 1018.0 |
| 20260503233506 | 23 | 132 | 3.2 | 11.3 | 0.00 | 0.00 | 0.00 | 54 | 1018.0 |
| 20260503233400 | 23 | 160 | 3.2 | 11.3 | 0.00 | 0.00 | 0.00 | 54 | 1018.0 |
| 20260503233344 | 23 | 88 | 3.2 | 11.3 | 0.00 | 0.00 | 0.00 | 54 | 1018.0 |
| 20260503233257 | 23 | 175 | 3.2 | 11.3 | 0.00 | 0.00 | 0.00 | 54 | 1018.0 |
| 20260503233154 | 23 | 105 | 3.2 | 11.3 | 0.00 | 0.00 | 0.00 | 53 | 1018.1 |
| 20260503233054 | 23 | 84 | 3.2 | 11.3 | 0.00 | 0.00 | 0.00 | 52 | 1018.1 |
| 20260503232953 | 23 | 75 | 3.2 | 11.3 | 0.00 | 0.00 | 0.00 | 52 | 1018.1 |
| 20260503232854 | 23 | 216 | 3.2 | 11.3 | 0.00 | 0.00 | 0.00 | 53 | 1018.0 |
| 20260503232837 | 23 | 131 | 3.2 | 11.3 | 0.00 | 0.00 | 0.00 | 53 | 1018.0 |
| 20260503232754 | 23 | 167 | 3.2 | 11.3 | 0.00 | 0.00 | 0.00 | 53 | 1018.0 |
| 20260503232651 | 23 | 198 | 3.2 | 8.0 | 0.00 | 0.00 | 0.00 | 53 | 1018.0 |
| 20260503232554 | 23 | 81 | 3.2 | 12.9 | 0.00 | 0.00 | 0.00 | 52 | 1018.0 |
| 20260503232548 | 23 | 112 | 3.2 | 12.9 | 0.00 | 0.00 | 0.00 | 53 | 1018.0 |
| 20260503232449 | 23 | 300 | 3.2 | 12.9 | 0.00 | 0.00 | 0.00 | 52 | 1018.0 |
| 20260503232443 | 23 | 77 | 3.2 | 12.9 | 0.00 | 0.00 | 0.00 | 52 | 1018.0 |
| 20260503232245 | 23 | 106 | 3.2 | 12.9 | 0.00 | 0.00 | 0.00 | 52 | 1018.0 |
| 20260503232139 | 23 | 139 | 3.2 | 12.9 | 0.00 | 0.00 | 0.00 | 52 | 1018.0 |
| 20260503232036 | 23 | 54 | 4.8 | 12.9 | 0.00 | 0.00 | 0.00 | 52 | 1018.1 |
| 20260503231935 | 23 | 133 | 4.8 | 12.9 | 0.00 | 0.00 | 0.00 | 52 | 1018.1 |
| 20260503231838 | 23 | 118 | 4.8 | 14.5 | 0.00 | 0.00 | 0.00 | 52 | 1018.1 |
| 20260503231834 | 23 | 129 | 4.8 | 14.5 | 0.00 | 0.00 | 0.00 | 52 | 1018.1 |
| 20260503231734 | 23 | 99 | 4.8 | 14.5 | 0.00 | 0.00 | 0.00 | 52 | 1018.1 |
| 20260503231627 | 23 | 252 | 6.4 | 14.5 | 0.00 | 0.00 | 0.00 | 52 | 1018.1 |
| 20260503231525 | 23 | 110 | 6.4 | 14.5 | 0.00 | 0.00 | 0.00 | 53 | 1018.1 |
| 20260503231428 | 23 | 288 | 6.4 | 14.5 | 0.00 | 0.00 | 0.00 | 53 | 1018.1 |
| 20260503231338 | 23 | 218 | 6.4 | 14.5 | 0.00 | 0.00 | 0.00 | 53 | 1018.1 |
| 20260503231321 | 23 | 302 | 6.4 | 14.5 | 0.00 | 0.00 | 0.00 | 52 | 1018.1 |
| 20260503231221 | 23 | 102 | 6.4 | 14.5 | 0.00 | 0.00 | 0.00 | 52 | 1018.1 |
| 20260503231121 | 23 | 108 | 6.4 | 14.5 | 0.00 | 0.00 | 0.00 | 52 | 1018.1 |
| 20260503231018 | 23 | 73 | 6.4 | 14.5 | 0.00 | 0.00 | 0.00 | 51 | 1018.1 |
| 20260503230918 | 23 | 108 | 6.4 | 14.5 | 0.00 | 0.00 | 0.00 | 52 | 1018.1 |
| 20260503230838 | 23 | 95 | 6.4 | 14.5 | 0.00 | 0.00 | 0.00 | 52 | 1018.1 |
| 20260503230818 | 23 | 113 | 6.4 | 14.5 | 0.00 | 0.00 | 0.00 | 51 | 1018.1 |
| 20260503230715 | 23 | 126 | 6.4 | 14.5 | 0.00 | 0.00 | 0.00 | 51 | 1018.1 |
| 20260503230613 | 23 | 76 | 4.8 | 14.5 | 0.00 | 0.00 | 0.00 | 52 | 1018.1 |
| 20260503230500 | 23 | 123 | 4.8 | 14.5 | 0.00 | 0.00 | 0.00 | 51 | 1018.1 |
| 20260503230400 | 23 | 97 | 4.8 | 14.5 | 0.00 | 0.00 | 0.00 | 52 | 1018.1 |
| 20260503230338 | 23 | 165 | 4.8 | 14.5 | 0.00 | 0.00 | 0.00 | 52 | 1018.1 |
| 20260503230300 | 23 | 159 | 4.8 | 14.5 | 0.00 | 0.00 | 0.00 | 52 | 1018.1 |
| 20260503230200 | 23 | 208 | 4.8 | 14.5 | 0.00 | 0.00 | 0.00 | 52 | 1018.1 |
| 20260503230100 | 23 | 73 | 4.8 | 14.5 | 0.00 | 0.00 | 0.00 | 52 | 1018.2 |
| 20260503225955 | 23 | 102 | 4.8 | 14.5 | 0.00 | 0.00 | 0.00 | 52 | 1018.2 |
| 20260503225848 | 23 | 101 | 4.8 | 14.5 | 0.00 | 0.00 | 0.00 | 52 | 1018.2 |
| 20260503225838 | 23 | 109 | 4.8 | 14.5 | 0.00 | 0.00 | 0.00 | 52 | 1018.2 |
| 20260503225748 | 23 | 105 | 4.8 | 14.5 | 0.00 | 0.00 | 0.00 | 52 | 1018.3 |
| 20260503225648 | 23 | 107 | 4.8 | 14.5 | 0.00 | 0.00 | 0.00 | 52 | 1018.3 |
| 20260503225548 | 23 | 157 | 4.8 | 12.9 | 0.00 | 0.00 | 0.00 | 51 | 1018.3 |
| 20260503225449 | 23 | 260 | 4.8 | 12.9 | 0.00 | 0.00 | 0.00 | 51 | 1018.3 |
| 20260503225349 | 23 | 305 | 4.8 | 12.9 | 0.00 | 0.00 | 0.00 | 51 | 1018.2 |
| 20260503225338 | 23 | 95 | 4.8 | 12.9 | 0.00 | 0.00 | 0.00 | 51 | 1018.2 |
| 20260503225249 | 23 | 185 | 4.8 | 12.9 | 0.00 | 0.00 | 0.00 | 52 | 1018.3 |
| 20260503225148 | 23 | 241 | 4.8 | 12.9 | 0.00 | 0.00 | 0.00 | 51 | 1018.2 |
| 20260503225045 | 23 | 95 | 4.8 | 16.1 | 0.00 | 0.00 | 0.00 | 51 | 1018.2 |
| 20260503224945 | 23 | 138 | 4.8 | 16.1 | 0.00 | 0.00 | 0.00 | 52 | 1018.2 |
| 20260503224840 | 23 | 133 | 6.4 | 16.1 | 0.00 | 0.00 | 0.00 | 52 | 1018.2 |
| 20260503224740 | 23 | 79 | 4.8 | 16.1 | 0.00 | 0.00 | 0.00 | 52 | 1018.2 |
| 20260503224640 | 23 | 89 | 4.8 | 16.1 | 0.00 | 0.00 | 0.00 | 51 | 1018.2 |
| 20260503224540 | 23 | 120 | 4.8 | 16.1 | 0.00 | 0.00 | 0.00 | 51 | 1018.2 |
| 20260503224440 | 23 | 220 | 4.8 | 16.1 | 0.00 | 0.00 | 0.00 | 52 | 1018.3 |
| 20260503224339 | 23 | 37 | 4.8 | 16.1 | 0.00 | 0.00 | 0.00 | 52 | 1018.3 |
| 20260503224334 | 23 | 99 | 4.8 | 16.1 | 0.00 | 0.00 | 0.00 | 52 | 1018.3 |
| 20260503224234 | 24 | 103 | 4.8 | 16.1 | 0.00 | 0.00 | 0.00 | 51 | 1018.3 |
| 20260503224130 | 24 | 165 | 4.8 | 16.1 | 0.00 | 0.00 | 0.00 | 51 | 1018.4 |
| 20260503224030 | 24 | 116 | 4.8 | 11.3 | 0.00 | 0.00 | 0.00 | 51 | 1018.3 |
| 20260503223930 | 24 | 163 | 4.8 | 11.3 | 0.00 | 0.00 | 0.00 | 51 | 1018.3 |
| 20260503223830 | 24 | 112 | 4.8 | 11.3 | 0.00 | 0.00 | 0.00 | 51 | 1018.4 |
| 20260503223730 | 24 | 79 | 4.8 | 11.3 | 0.00 | 0.00 | 0.00 | 51 | 1018.4 |
| 20260503223627 | 24 | 188 | 4.8 | 11.3 | 0.00 | 0.00 | 0.00 | 51 | 1018.4 |
| 20260503223525 | 23 | 78 | 4.8 | 11.3 | 0.00 | 0.00 | 0.00 | 52 | 1018.4 |
| 20260503223425 | 23 | 220 | 4.8 | 11.3 | 0.00 | 0.00 | 0.00 | 51 | 1018.4 |
| 20260503223332 | 23 | 104 | 4.8 | 16.1 | 0.00 | 0.00 | 0.00 | 51 | 1018.4 |
| 20260503223325 | 23 | 94 | 4.8 | 16.1 | 0.00 | 0.00 | 0.00 | 51 | 1018.4 |
| 20260503223225 | 24 | 92 | 4.8 | 16.1 | 0.00 | 0.00 | 0.00 | 51 | 1018.5 |
| 20260503223122 | 24 | 191 | 4.8 | 16.1 | 0.00 | 0.00 | 0.00 | 50 | 1018.6 |
| 20260503223022 | 24 | 115 | 4.8 | 16.1 | 0.00 | 0.00 | 0.00 | 51 | 1018.6 |
| 20260503222923 | 24 | 153 | 4.8 | 16.1 | 0.00 | 0.00 | 0.00 | 52 | 1018.6 |
| 20260503222829 | 24 | 128 | 4.8 | 16.1 | 0.00 | 0.00 | 0.00 | 52 | 1018.6 |
| 20260503222822 | 24 | 86 | 4.8 | 16.1 | 0.00 | 0.00 | 0.00 | 52 | 1018.6 |
| 20260503222719 | 24 | 131 | 4.8 | 16.1 | 0.00 | 0.00 | 0.00 | 52 | 1018.6 |
| 20260503222616 | 24 | 95 | 4.8 | 16.1 | 0.00 | 0.00 | 0.00 | 51 | 1018.6 |
| 20260503222552 | 24 | 124 | 6.4 | 16.1 | 0.00 | 0.00 | 0.00 | 51 | 1018.6 |
| 20260503222507 | 24 | 225 | 4.8 | 16.1 | 0.00 | 0.00 | 0.00 | 51 | 1018.6 |
| 20260503222435 | 24 | 93 | 6.4 | 16.1 | 0.00 | 0.00 | 0.00 | 51 | 1018.6 |
| 20260503222257 | 24 | 92 | 6.4 | 14.5 | 0.00 | 0.00 | 0.00 | 51 | 1018.6 |
| 20260503222158 | 24 | 213 | 6.4 | 14.5 | 0.00 | 0.00 | 0.00 | 50 | 1018.6 |
| 20260503222058 | 24 | 104 | 6.4 | 14.5 | 0.00 | 0.00 | 0.00 | 51 | 1018.6 |
| 20260503221958 | 24 | 81 | 6.4 | 14.5 | 0.00 | 0.00 | 0.00 | 52 | 1018.5 |
| 20260503221858 | 24 | 97 | 6.4 | 14.5 | 0.00 | 0.00 | 0.00 | 52 | 1018.5 |
| 20260503221830 | 24 | 116 | 6.4 | 14.5 | 0.00 | 0.00 | 0.00 | 52 | 1018.5 |
| 20260503221756 | 24 | 59 | 6.4 | 14.5 | 0.00 | 0.00 | 0.00 | 52 | 1018.5 |
| 20260503221656 | 24 | 107 | 6.4 | 14.5 | 0.00 | 0.00 | 0.00 | 51 | 1018.5 |
| 20260503221600 | 24 | 112 | 4.8 | 14.5 | 0.00 | 0.00 | 0.00 | 51 | 1018.5 |
| 20260503221554 | 24 | 97 | 6.4 | 14.5 | 0.00 | 0.00 | 0.00 | 51 | 1018.5 |
| 20260503221456 | 24 | 88 | 6.4 | 14.5 | 0.00 | 0.00 | 0.00 | 51 | 1018.5 |
| 20260503221435 | 24 | 129 | 4.8 | 14.5 | 0.00 | 0.00 | 0.00 | 51 | 1018.5 |
| 20260503221252 | 24 | 79 | 4.8 | 14.5 | 0.00 | 0.00 | 0.00 | 50 | 1018.5 |
| 20260503221152 | 24 | 114 | 4.8 | 14.5 | 0.00 | 0.00 | 0.00 | 51 | 1018.5 |
| 20260503221042 | 24 | 137 | 4.8 | 14.5 | 0.00 | 0.00 | 0.00 | 50 | 1018.5 |
| 20260503220943 | 24 | 187 | 4.8 | 14.5 | 0.00 | 0.00 | 0.00 | 51 | 1018.6 |
| 20260503220840 | 24 | 355 | 4.8 | 14.5 | 0.00 | 0.00 | 0.00 | 50 | 1018.6 |
| 20260503220830 | 24 | 185 | 4.8 | 14.5 | 0.00 | 0.00 | 0.00 | 50 | 1018.6 |
| 20260503220741 | 24 | 165 | 4.8 | 14.5 | 0.00 | 0.00 | 0.00 | 50 | 1018.6 |
| 20260503220639 | 24 | 153 | 4.8 | 14.5 | 0.00 | 0.00 | 0.00 | 51 | 1018.5 |
| 20260503220537 | 24 | 90 | 4.8 | 14.5 | 0.00 | 0.00 | 0.00 | 51 | 1018.5 |
| 20260503220437 | 24 | 82 | 4.8 | 14.5 | 0.00 | 0.00 | 0.00 | 50 | 1018.5 |
| 20260503220342 | 24 | 97 | 4.8 | 14.5 | 0.00 | 0.00 | 0.00 | 50 | 1018.5 |
| 20260503220330 | 24 | 112 | 4.8 | 14.5 | 0.00 | 0.00 | 0.00 | 50 | 1018.5 |
| 20260503220237 | 24 | 142 | 4.8 | 12.9 | 0.00 | 0.00 | 0.00 | 50 | 1018.5 |
| 20260503220137 | 24 | 297 | 4.8 | 12.9 | 0.00 | 0.00 | 0.00 | 50 | 1018.5 |
| 20260503220037 | 24 | 125 | 4.8 | 12.9 | 0.00 | 0.00 | 0.00 | 50 | 1018.6 |
| 20260503215934 | 24 | 50 | 4.8 | 12.9 | 0.00 | 0.00 | 0.00 | 50 | 1018.6 |
| 20260503215831 | 24 | 95 | 4.8 | 12.9 | 0.00 | 0.00 | 0.00 | 50 | 1018.6 |
| 20260503215731 | 24 | 114 | 4.8 | 12.9 | 0.00 | 0.00 | 0.00 | 50 | 1018.6 |
| 20260503215631 | 24 | 88 | 4.8 | 12.9 | 0.00 | 0.00 | 0.00 | 49 | 1018.6 |
| 20260503215531 | 24 | 190 | 4.8 | 12.9 | 0.00 | 0.00 | 0.00 | 49 | 1018.6 |
| 20260503215426 | 25 | 97 | 3.2 | 12.9 | 0.00 | 0.00 | 0.00 | 50 | 1018.6 |
| 20260503215330 | 25 | 114 | 4.8 | 12.9 | 0.00 | 0.00 | 0.00 | 50 | 1018.6 |
| 20260503215326 | 25 | 101 | 4.8 | 12.9 | 0.00 | 0.00 | 0.00 | 50 | 1018.6 |
| 20260503215219 | 25 | 93 | 4.8 | 12.9 | 0.00 | 0.00 | 0.00 | 50 | 1018.6 |
| 20260503215119 | 25 | 74 | 3.2 | 12.9 | 0.00 | 0.00 | 0.00 | 49 | 1018.6 |
| 20260503215019 | 25 | 103 | 3.2 | 12.9 | 0.00 | 0.00 | 0.00 | 49 | 1018.7 |
| 20260503214919 | 25 | 66 | 3.2 | 12.9 | 0.00 | 0.00 | 0.00 | 50 | 1018.7 |
| 20260503214827 | 25 | 95 | 3.2 | 12.9 | 0.00 | 0.00 | 0.00 | 50 | 1018.7 |
| 20260503214820 | 25 | 131 | 3.2 | 12.9 | 0.00 | 0.00 | 0.00 | 49 | 1018.7 |
| 20260503214720 | 25 | 170 | 3.2 | 12.9 | 0.00 | 0.00 | 0.00 | 49 | 1018.8 |
| 20260503214619 | 25 | 186 | 3.2 | 12.9 | 0.00 | 0.00 | 0.00 | 49 | 1018.8 |
| 20260503214520 | 25 | 154 | 3.2 | 12.9 | 0.00 | 0.00 | 0.00 | 49 | 1018.8 |
| 20260503214413 | 25 | 98 | 3.2 | 12.9 | 0.00 | 0.00 | 0.00 | 49 | 1018.8 |
| 20260503214324 | 25 | 89 | 3.2 | 12.9 | 0.00 | 0.00 | 0.00 | 49 | 1018.8 |
| 20260503214310 | 25 | 37 | 3.2 | 12.9 | 0.00 | 0.00 | 0.00 | 49 | 1018.8 |
| 20260503214210 | 25 | 153 | 4.8 | 12.9 | 0.00 | 0.00 | 0.00 | 49 | 1018.8 |
| 20260503214105 | 25 | 181 | 4.8 | 14.5 | 0.00 | 0.00 | 0.00 | 51 | 1018.8 |
| 20260503214005 | 25 | 183 | 4.8 | 14.5 | 0.00 | 0.00 | 0.00 | 49 | 1018.8 |
| 20260503213901 | 25 | 284 | 4.8 | 14.5 | 0.00 | 0.00 | 0.00 | 49 | 1018.8 |
| 20260503213823 | 25 | 216 | 4.8 | 14.5 | 0.00 | 0.00 | 0.00 | 49 | 1018.8 |
| 20260503213801 | 25 | 166 | 4.8 | 14.5 | 0.00 | 0.00 | 0.00 | 49 | 1018.8 |
| 20260503213658 | 25 | 91 | 6.4 | 14.5 | 0.00 | 0.00 | 0.00 | 49 | 1018.8 |
| 20260503213558 | 25 | 187 | 4.8 | 14.5 | 0.00 | 0.00 | 0.00 | 49 | 1018.8 |
| 20260503213459 | 25 | 179 | 4.8 | 14.5 | 0.00 | 0.00 | 0.00 | 48 | 1018.8 |
| 20260503213359 | 25 | 130 | 4.8 | 14.5 | 0.00 | 0.00 | 0.00 | 49 | 1018.8 |
| 20260503213321 | 25 | 98 | 4.8 | 14.5 | 0.00 | 0.00 | 0.00 | 49 | 1018.8 |
| 20260503213259 | 25 | 112 | 4.8 | 14.5 | 0.00 | 0.00 | 0.00 | 49 | 1018.8 |
| 20260503213159 | 25 | 234 | 4.8 | 14.5 | 0.00 | 0.00 | 0.00 | 49 | 1018.8 |
| 20260503213058 | 25 | 166 | 4.8 | 14.5 | 0.00 | 0.00 | 0.00 | 49 | 1018.8 |
| 20260503212958 | 25 | 134 | 4.8 | 12.9 | 0.00 | 0.00 | 0.00 | 48 | 1018.8 |
| 20260503212858 | 25 | 149 | 4.8 | 12.9 | 0.00 | 0.00 | 0.00 | 48 | 1018.8 |
| 20260503212822 | 25 | 108 | 4.8 | 12.9 | 0.00 | 0.00 | 0.00 | 49 | 1018.8 |
| 20260503212755 | 25 | 81 | 4.8 | 12.9 | 0.00 | 0.00 | 0.00 | 49 | 1018.8 |
| 20260503212655 | 25 | 118 | 4.8 | 12.9 | 0.00 | 0.00 | 0.00 | 50 | 1018.9 |
| 20260503212556 | 25 | 188 | 4.8 | 12.9 | 0.00 | 0.00 | 0.00 | 50 | 1018.9 |
| 20260503212453 | 25 | 244 | 4.8 | 12.9 | 0.00 | 0.00 | 0.00 | 48 | 1018.9 |
| 20260503212350 | 25 | 128 | 4.8 | 12.9 | 0.00 | 0.00 | 0.00 | 49 | 1019.0 |
| 20260503212322 | 25 | 194 | 4.8 | 12.9 | 0.00 | 0.00 | 0.00 | 50 | 1019.0 |
| 20260503212250 | 25 | 179 | 4.8 | 12.9 | 0.00 | 0.00 | 0.00 | 50 | 1019.0 |
| 20260503212149 | 25 | 122 | 4.8 | 12.9 | 0.00 | 0.00 | 0.00 | 50 | 1019.0 |
| 20260503212049 | 25 | 239 | 4.8 | 12.9 | 0.00 | 0.00 | 0.00 | 49 | 1019.0 |
| 20260503211949 | 25 | 163 | 4.8 | 12.9 | 0.00 | 0.00 | 0.00 | 49 | 1019.1 |
| 20260503211847 | 25 | 131 | 4.8 | 12.9 | 0.00 | 0.00 | 0.00 | 49 | 1019.1 |
| 20260503211821 | 25 | 186 | 4.8 | 12.9 | 0.00 | 0.00 | 0.00 | 49 | 1019.1 |
| 20260503211741 | 25 | 169 | 4.8 | 12.9 | 0.00 | 0.00 | 0.00 | 49 | 1019.1 |
| 20260503211635 | 25 | 161 | 4.8 | 12.9 | 0.00 | 0.00 | 0.00 | 49 | 1019.1 |
| 20260503211532 | 25 | 113 | 4.8 | 12.9 | 0.00 | 0.00 | 0.00 | 49 | 1019.0 |
| 20260503211429 | 25 | 222 | 4.8 | 12.9 | 0.00 | 0.00 | 0.00 | 50 | 1019.1 |
| 20260503211329 | 25 | 178 | 4.8 | 12.9 | 0.00 | 0.00 | 0.00 | 50 | 1019.1 |
| 20260503211321 | 25 | 189 | 4.8 | 12.9 | 0.00 | 0.00 | 0.00 | 50 | 1019.1 |
| 20260503211226 | 25 | 95 | 4.8 | 12.9 | 0.00 | 0.00 | 0.00 | 50 | 1019.1 |
| 20260503211126 | 25 | 102 | 4.8 | 12.9 | 0.00 | 0.00 | 0.00 | 49 | 1019.1 |
| 20260503211022 | 25 | 67 | 4.8 | 12.9 | 0.00 | 0.00 | 0.00 | 49 | 1019.1 |
| 20260503210923 | 25 | 99 | 4.8 | 12.9 | 0.00 | 0.00 | 0.00 | 50 | 1019.2 |
| 20260503210823 | 25 | 120 | 4.8 | 12.9 | 0.00 | 0.00 | 0.00 | 50 | 1019.2 |
| 20260503210723 | 25 | 47 | 4.8 | 12.9 | 0.00 | 0.00 | 0.00 | 50 | 1019.2 |
| 20260503210620 | 25 | 310 | 4.8 | 16.1 | 0.00 | 0.00 | 0.00 | 50 | 1019.2 |
| 20260503210517 | 25 | 135 | 4.8 | 16.1 | 0.00 | 0.00 | 0.00 | 50 | 1019.2 |
| 20260503210417 | 25 | 99 | 4.8 | 16.1 | 0.00 | 0.00 | 0.00 | 49 | 1019.2 |
| 20260503210322 | 25 | 98 | 4.8 | 16.1 | 0.00 | 0.00 | 0.00 | 49 | 1019.2 |
| 20260503210317 | 25 | 113 | 4.8 | 16.1 | 0.00 | 0.00 | 0.00 | 49 | 1019.2 |
| 20260503210217 | 25 | 91 | 4.8 | 16.1 | 0.00 | 0.00 | 0.00 | 50 | 1019.2 |
| 20260503210117 | 25 | 174 | 4.8 | 16.1 | 0.00 | 0.00 | 0.00 | 49 | 1019.1 |
| 20260503210022 | 25 | 146 | 4.8 | 16.1 | 0.00 | 0.00 | 0.00 | 50 | 1019.1 |
| 20260503205916 | 25 | 63 | 4.8 | 16.1 | 0.00 | 0.00 | 0.00 | 50 | 1019.2 |
| 20260503205819 | 25 | 114 | 4.8 | 16.1 | 0.00 | 0.00 | 0.00 | 50 | 1019.2 |
| 20260503205814 | 25 | 74 | 4.8 | 16.1 | 0.00 | 0.00 | 0.00 | 50 | 1019.2 |
| 20260503205710 | 25 | 151 | 4.8 | 16.1 | 0.00 | 0.00 | 0.00 | 50 | 1019.2 |
| 20260503205608 | 25 | 134 | 4.8 | 16.1 | 0.00 | 0.00 | 0.00 | 50 | 1019.2 |
| 20260503205508 | 25 | 243 | 4.8 | 12.9 | 0.00 | 0.00 | 0.00 | 50 | 1019.2 |
| 20260503205405 | 25 | 95 | 4.8 | 12.9 | 0.00 | 0.00 | 0.00 | 50 | 1019.3 |
| 20260503205319 | 25 | 204 | 4.8 | 12.9 | 0.00 | 0.00 | 0.00 | 49 | 1019.2 |
| 20260503205305 | 25 | 189 | 4.8 | 12.9 | 0.00 | 0.00 | 0.00 | 49 | 1019.2 |
| 20260503205205 | 25 | 94 | 4.8 | 12.9 | 0.00 | 0.00 | 0.00 | 50 | 1019.3 |
| 20260503205059 | 25 | 155 | 4.8 | 14.5 | 0.00 | 0.00 | 0.00 | 50 | 1019.3 |
| 20260503204959 | 25 | 116 | 4.8 | 14.5 | 0.00 | 0.00 | 0.00 | 50 | 1019.3 |
| 20260503204900 | 25 | 150 | 4.8 | 14.5 | 0.00 | 0.00 | 0.00 | 50 | 1019.3 |
| 20260503204819 | 25 | 76 | 4.8 | 14.5 | 0.00 | 0.00 | 0.00 | 50 | 1019.3 |
| 20260503204759 | 25 | 79 | 4.8 | 14.5 | 0.00 | 0.00 | 0.00 | 50 | 1019.3 |
| 20260503204659 | 25 | 95 | 4.8 | 14.5 | 0.00 | 0.00 | 0.00 | 51 | 1019.3 |
| 20260503204559 | 25 | 74 | 4.8 | 14.5 | 0.00 | 0.00 | 0.00 | 51 | 1019.3 |
| 20260503204459 | 25 | 95 | 4.8 | 14.5 | 0.00 | 0.00 | 0.00 | 48 | 1019.2 |
| 20260503204356 | 25 | 161 | 4.8 | 14.5 | 0.00 | 0.00 | 0.00 | 48 | 1019.2 |
| 20260503204319 | 25 | 136 | 4.8 | 14.5 | 0.00 | 0.00 | 0.00 | 48 | 1019.2 |
| 20260503204256 | 25 | 112 | 4.8 | 14.5 | 0.00 | 0.00 | 0.00 | 48 | 1019.2 |
| 20260503204156 | 25 | 132 | 4.8 | 12.9 | 0.00 | 0.00 | 0.00 | 48 | 1019.2 |
| 20260503204056 | 25 | 170 | 4.8 | 12.9 | 0.00 | 0.00 | 0.00 | 49 | 1019.3 |
| 20260503204038 | 25 | 167 | 4.8 | 11.3 | 0.00 | 0.00 | 0.00 | 49 | 1019.3 |
| 20260503203957 | 25 | 174 | 4.8 | 12.9 | 0.00 | 0.00 | 0.00 | 49 | 1019.3 |
| 20260503203921 | 25 | 113 | 4.8 | 11.3 | 0.00 | 0.00 | 0.00 | 49 | 1019.3 |
| 20260503203757 | 25 | 122 | 4.8 | 11.3 | 0.00 | 0.00 | 0.00 | 49 | 1019.3 |
| 20260503203657 | 25 | 134 | 4.8 | 12.9 | 0.00 | 0.00 | 0.00 | 49 | 1019.3 |
| 20260503203557 | 25 | 153 | 4.8 | 12.9 | 0.00 | 0.00 | 0.00 | 49 | 1019.4 |
| 20260503203456 | 25 | 191 | 4.8 | 12.9 | 0.00 | 0.00 | 0.00 | 51 | 1019.4 |
| 20260503203356 | 25 | 152 | 4.8 | 12.9 | 0.00 | 0.00 | 0.00 | 51 | 1019.4 |
| 20260503203314 | 25 | 115 | 4.8 | 12.9 | 0.00 | 0.00 | 0.00 | 50 | 1019.4 |
| 20260503203256 | 25 | 31 | 4.8 | 12.9 | 0.00 | 0.00 | 0.00 | 50 | 1019.4 |
| 20260503203156 | 25 | 90 | 4.8 | 12.9 | 0.00 | 0.00 | 0.00 | 50 | 1019.4 |
| 20260503203056 | 25 | 97 | 4.8 | 12.9 | 0.00 | 0.00 | 0.00 | 50 | 1019.5 |
| 20260503202856 | 25 | 154 | 4.8 | 12.9 | 0.00 | 0.00 | 0.00 | 49 | 1019.5 |
| 20260503202813 | 25 | 100 | 4.8 | 12.9 | 0.00 | 0.00 | 0.00 | 49 | 1019.6 |
| 20260503202756 | 25 | 99 | 4.8 | 12.9 | 0.00 | 0.00 | 0.00 | 49 | 1019.6 |
| 20260503202656 | 25 | 183 | 3.2 | 11.3 | 0.00 | 0.00 | 0.00 | 50 | 1019.6 |
| 20260503202556 | 25 | 97 | 4.8 | 11.3 | 0.00 | 0.00 | 0.00 | 51 | 1019.6 |
| 20260503202457 | 25 | 222 | 4.8 | 14.5 | 0.00 | 0.00 | 0.00 | 49 | 1019.7 |
| 20260503202357 | 25 | 82 | 4.8 | 14.5 | 0.00 | 0.00 | 0.00 | 49 | 1019.7 |
| 20260503202315 | 25 | 131 | 4.8 | 14.5 | 0.00 | 0.00 | 0.00 | 49 | 1019.7 |
| 20260503202256 | 25 | 77 | 4.8 | 14.5 | 0.00 | 0.00 | 0.00 | 49 | 1019.7 |
| 20260503202157 | 25 | 69 | 4.8 | 14.5 | 0.00 | 0.00 | 0.00 | 49 | 1019.7 |
| 20260503202056 | 25 | 115 | 4.8 | 14.5 | 0.00 | 0.00 | 0.00 | 48 | 1019.7 |
| 20260503201954 | 25 | 153 | 4.8 | 14.5 | 0.00 | 0.00 | 0.00 | 48 | 1019.7 |
| 20260503201854 | 25 | 139 | 4.8 | 14.5 | 0.00 | 0.00 | 0.00 | 48 | 1019.7 |
| 20260503201810 | 25 | 83 | 4.8 | 14.5 | 0.00 | 0.00 | 0.00 | 49 | 1019.7 |
| 20260503201751 | 25 | 185 | 4.8 | 14.5 | 0.00 | 0.00 | 0.00 | 49 | 1019.7 |
| 20260503201651 | 25 | 88 | 4.8 | 14.5 | 0.00 | 0.00 | 0.00 | 49 | 1019.7 |
| 20260503201551 | 25 | 108 | 4.8 | 14.5 | 0.00 | 0.00 | 0.00 | 49 | 1019.7 |
| 20260503201451 | 25 | 89 | 4.8 | 12.9 | 0.00 | 0.00 | 0.00 | 49 | 1019.8 |
| 20260503201350 | 25 | 113 | 4.8 | 12.9 | 0.00 | 0.00 | 0.00 | 49 | 1019.8 |
| 20260503201310 | 25 | 76 | 3.2 | 11.3 | 0.00 | 0.00 | 0.00 | 49 | 1019.8 |
| 20260503201248 | 25 | 106 | 3.2 | 11.3 | 0.00 | 0.00 | 0.00 | 49 | 1019.8 |
| 20260503201148 | 25 | 162 | 4.8 | 12.9 | 0.00 | 0.00 | 0.00 | 49 | 1019.8 |
| 20260503201048 | 25 | 174 | 4.8 | 12.9 | 0.00 | 0.00 | 0.00 | 48 | 1019.8 |
| 20260503200944 | 25 | 104 | 4.8 | 12.9 | 0.00 | 0.00 | 0.00 | 49 | 1019.8 |
| 20260503200844 | 25 | 148 | 4.8 | 12.9 | 0.00 | 0.00 | 0.00 | 49 | 1019.9 |
| 20260503200810 | 25 | 131 | 4.8 | 12.9 | 0.00 | 0.00 | 0.00 | 49 | 1019.9 |
| 20260503200744 | 25 | 200 | 4.8 | 12.9 | 0.00 | 0.00 | 0.00 | 49 | 1019.9 |
| 20260503200644 | 25 | 188 | 4.8 | 12.9 | 0.00 | 0.00 | 0.00 | 49 | 1019.9 |
| 20260503200542 | 25 | 46 | 6.4 | 14.5 | 0.00 | 0.00 | 0.00 | 49 | 1019.9 |
| 20260503200439 | 25 | 64 | 6.4 | 14.5 | 0.00 | 0.00 | 0.00 | 49 | 1019.9 |
| 20260503200339 | 25 | 63 | 6.4 | 14.5 | 0.00 | 0.00 | 0.00 | 49 | 1019.9 |
| 20260503200311 | 25 | 75 | 6.4 | 14.5 | 0.00 | 0.00 | 0.00 | 50 | 1019.9 |
| 20260503200239 | 25 | 97 | 6.4 | 14.5 | 0.00 | 0.00 | 0.00 | 50 | 1019.9 |
| 20260503200139 | 25 | 52 | 6.4 | 14.5 | 0.00 | 0.00 | 0.00 | 50 | 1019.9 |
| 20260503200039 | 25 | 139 | 4.8 | 14.5 | 0.00 | 0.00 | 0.00 | 51 | 1020.0 |
| 20260503195939 | 25 | 94 | 4.8 | 14.5 | 0.00 | 0.00 | 0.00 | 51 | 1020.0 |
| 20260503195835 | 25 | 123 | 4.8 | 14.5 | 0.00 | 0.00 | 0.00 | 51 | 1020.0 |
| 20260503195801 | 25 | 85 | 4.8 | 14.5 | 0.00 | 0.00 | 0.00 | 51 | 1020.0 |
| 20260503195735 | 25 | 99 | 4.8 | 14.5 | 0.00 | 0.00 | 0.00 | 51 | 1020.0 |
| 20260503195636 | 25 | 100 | 4.8 | 14.5 | 0.00 | 0.00 | 0.00 | 50 | 1020.0 |
| 20260503195536 | 25 | 129 | 4.8 | 9.7 | 0.00 | 0.00 | 0.00 | 51 | 1020.0 |
| 20260503195432 | 25 | 112 | 4.8 | 11.3 | 0.00 | 0.00 | 0.00 | 48 | 1019.9 |
| 20260503195327 | 25 | 339 | 4.8 | 11.3 | 0.00 | 0.00 | 0.00 | 48 | 1020.0 |
| 20260503195304 | 25 | 134 | 4.8 | 11.3 | 0.00 | 0.00 | 0.00 | 48 | 1020.0 |
| 20260503195227 | 25 | 114 | 4.8 | 11.3 | 0.00 | 0.00 | 0.00 | 48 | 1020.0 |
| 20260503195127 | 25 | 156 | 4.8 | 11.3 | 0.00 | 0.00 | 0.00 | 50 | 1020.1 |
| 20260503195027 | 25 | 187 | 4.8 | 11.3 | 0.00 | 0.00 | 0.00 | 50 | 1020.1 |
| 20260503194927 | 25 | 178 | 4.8 | 12.9 | 0.00 | 0.00 | 0.00 | 49 | 1020.0 |
| 20260503194827 | 25 | 61 | 4.8 | 14.5 | 0.00 | 0.00 | 0.00 | 49 | 1020.0 |
| 20260503194802 | 25 | 114 | 4.8 | 16.1 | 0.00 | 0.00 | 0.00 | 50 | 1020.1 |
| 20260503194727 | 25 | 96 | 6.4 | 16.1 | 0.00 | 0.00 | 0.00 | 50 | 1020.1 |
| 20260503194627 | 25 | 335 | 6.4 | 16.1 | 0.00 | 0.00 | 0.00 | 49 | 1020.1 |
| 20260503194527 | 25 | 94 | 6.4 | 16.1 | 0.00 | 0.00 | 0.00 | 50 | 1020.1 |
| 20260503194427 | 25 | 92 | 6.4 | 16.1 | 0.00 | 0.00 | 0.00 | 50 | 1020.1 |
| 20260503194327 | 25 | 87 | 6.4 | 16.1 | 0.00 | 0.00 | 0.00 | 48 | 1020.1 |
| 20260503194301 | 25 | 79 | 6.4 | 16.1 | 0.00 | 0.00 | 0.00 | 48 | 1020.1 |
| 20260503194225 | 25 | 78 | 6.4 | 16.1 | 0.00 | 0.00 | 0.00 | 49 | 1020.1 |
| 20260503194124 | 25 | 189 | 6.4 | 16.1 | 0.00 | 0.00 | 0.00 | 48 | 1020.1 |
| 20260503194025 | 25 | 94 | 6.4 | 16.1 | 0.00 | 0.00 | 0.00 | 48 | 1020.1 |
| 20260503193925 | 25 | 97 | 6.4 | 16.1 | 0.00 | 0.00 | 0.00 | 48 | 1020.1 |
| 20260503193821 | 26 | 120 | 4.8 | 16.1 | 0.00 | 0.00 | 0.00 | 49 | 1020.2 |
| 20260503193759 | 26 | 121 | 4.8 | 16.1 | 0.00 | 0.00 | 0.00 | 49 | 1020.2 |
| 20260503193721 | 26 | 141 | 4.8 | 16.1 | 0.00 | 0.00 | 0.00 | 50 | 1020.1 |
| 20260503193622 | 25 | 97 | 4.8 | 14.5 | 0.00 | 0.00 | 0.00 | 51 | 1020.2 |
| 20260503193522 | 25 | 68 | 4.8 | 14.5 | 0.00 | 0.00 | 0.00 | 51 | 1020.2 |
| 20260503193422 | 25 | 305 | 4.8 | 14.5 | 0.00 | 0.00 | 0.00 | 50 | 1020.2 |
| 20260503193318 | 25 | 87 | 4.8 | 14.5 | 0.00 | 0.00 | 0.00 | 49 | 1020.2 |
| 20260503193258 | 25 | 87 | 4.8 | 14.5 | 0.00 | 0.00 | 0.00 | 49 | 1020.2 |
| 20260503193218 | 25 | 109 | 4.8 | 14.5 | 0.00 | 0.00 | 0.00 | 49 | 1020.2 |
| 20260503193118 | 25 | 165 | 4.8 | 14.5 | 0.00 | 0.00 | 0.00 | 48 | 1020.2 |
| 20260503193027 | 25 | 182 | 4.8 | 14.5 | 0.00 | 0.00 | 0.00 | 51 | 1020.3 |
| 20260503193018 | 25 | 122 | 4.8 | 14.5 | 0.00 | 0.00 | 0.00 | 49 | 1020.2 |
| 20260503192918 | 25 | 160 | 4.8 | 14.5 | 0.00 | 0.00 | 0.00 | 50 | 1020.3 |
| 20260503192905 | 25 | 146 | 4.8 | 14.5 | 0.00 | 0.00 | 0.00 | 51 | 1020.3 |
| 20260503192718 | 25 | 0 | 4.8 | 14.5 | 0.00 | 0.00 | 0.00 | 50 | 1020.3 |
| 20260503192618 | 25 | 158 | 4.8 | 14.5 | 0.00 | 0.00 | 0.00 | 49 | 1020.3 |
| 20260503192518 | 25 | 169 | 4.8 | 14.5 | 0.00 | 0.00 | 0.00 | 49 | 1020.4 |